EW5603 Weather Reports


Display with metric or nautical units.
time (UTC)temp
F
wind
direction
speed
MPH
gust
MPH
rain 1hr
in
rain 24hr
in
rain mn
in
humidity
%
barometer
mb
20260506123822 61 180 2.0 3.0 0.00 0.00 0.00 83 1018.5
20260506123723 61 158 3.0 6.0 0.00 0.00 0.00 83 1018.5
20260506123702 61 158 6.0 9.0 0.00 0.00 0.00 83 1018.5
20260506123522 61 135 4.0 6.0 0.00 0.00 0.00 83 1018.6
20260506123442 61 225 3.0 6.0 0.00 0.00 0.00 83 1018.6
20260506123322 61 203 5.0 7.0 0.00 0.00 0.00 83 1018.7
20260506123221 61 225 4.0 8.0 0.00 0.00 0.00 82 1018.7
20260506123122 61 203 5.0 9.0 0.00 0.00 0.00 83 1018.7
20260506123042 61 158 3.0 5.0 0.00 0.00 0.00 84 1018.8
20260506122822 61 180 3.0 6.0 0.00 0.00 0.00 84 1018.8
20260506122804 61 203 3.0 6.0 0.00 0.00 0.00 84 1018.8
20260506122623 61 203 1.0 4.0 0.00 0.00 0.00 85 1018.8
20260506122523 61 225 2.0 4.0 0.00 0.00 0.00 84 1018.8
20260506122422 61 158 3.0 5.0 0.00 0.00 0.00 84 1018.8
20260506122343 61 158 4.0 6.0 0.00 0.00 0.00 84 1018.8
20260506122222 61 158 2.0 5.0 0.00 0.00 0.00 84 1018.9
20260506122122 61 203 3.0 5.0 0.00 0.00 0.00 84 1018.9
20260506122042 61 180 1.0 3.0 0.00 0.00 0.00 85 1018.9
20260506121922 61 180 1.0 3.0 0.00 0.00 0.00 85 1018.9
20260506121822 61 248 4.0 8.0 0.00 0.00 0.00 85 1018.9
20260506121742 60 203 2.0 5.0 0.00 0.00 0.00 84 1018.8
20260506121622 60 203 2.0 3.0 0.00 0.00 0.00 84 1018.9
20260506121523 60 180 4.0 8.0 0.00 0.00 0.00 84 1018.8
20260506121443 60 203 4.0 8.0 0.00 0.00 0.00 84 1018.8
20260506121323 60 225 2.0 4.0 0.00 0.00 0.00 84 1018.8
20260506121224 60 225 2.0 5.0 0.00 0.00 0.00 85 1018.8
20260506121121 60 180 2.0 4.0 0.00 0.00 0.00 85 1018.8
20260506121023 60 180 2.0 4.0 0.00 0.00 0.00 85 1018.8
20260506120921 60 180 3.0 5.0 0.00 0.00 0.00 85 1018.8
20260506120821 60 180 4.0 7.0 0.00 0.00 0.00 85 1018.9
20260506120722 60 180 4.0 5.0 0.00 0.00 0.00 85 1018.8
20260506120622 60 203 1.0 4.0 0.00 0.00 0.00 85 1018.8
20260506120522 60 203 2.0 4.0 0.00 0.00 0.00 85 1018.8
20260506120422 60 158 3.0 5.0 0.00 0.00 0.00 85 1018.8
20260506120321 60 203 2.0 8.0 0.00 0.00 0.00 84 1018.7
20260506120222 60 203 5.0 9.0 0.00 0.00 0.00 85 1018.7
20260506120122 60 203 4.0 6.0 0.00 0.00 0.00 85 1018.7
20260506120022 60 225 2.0 3.0 0.00 0.00 0.00 85 1018.6
20260506115941 60 270 2.0 4.0 0.00 0.00 0.00 85 1018.7
20260506115822 60 180 4.0 7.0 0.00 0.00 0.00 85 1018.7
20260506115722 60 225 3.0 4.0 0.00 0.00 0.00 85 1018.6
20260506115621 60 158 3.0 5.0 0.00 0.00 0.00 86 1018.6
20260506115521 60 158 4.0 7.0 0.00 0.00 0.00 85 1018.6
20260506115421 60 180 4.0 7.0 0.00 0.00 0.00 86 1018.6
20260506115322 60 248 2.0 5.0 0.00 0.00 0.00 86 1018.7
20260506115242 60 248 1.0 4.0 0.00 0.00 0.00 86 1018.6
20260506115142 59 158 4.0 8.0 0.00 0.00 0.00 86 1018.7
20260506115022 59 225 2.0 4.0 0.00 0.00 0.00 87 1018.7
20260506114922 59 180 2.0 5.0 0.00 0.00 0.00 87 1018.6
20260506114822 59 180 2.0 4.0 0.00 0.00 0.00 87 1018.7
20260506114721 59 203 4.0 6.0 0.00 0.00 0.00 87 1018.6
20260506114642 59 203 3.0 6.0 0.00 0.00 0.00 87 1018.6
20260506114521 59 203 1.0 2.0 0.00 0.00 0.00 87 1018.6
20260506114421 59 225 2.0 4.0 0.00 0.00 0.00 87 1018.6
20260506114322 59 203 5.0 7.0 0.00 0.00 0.00 87 1018.5
20260506114302 59 180 2.0 4.0 0.00 0.00 0.00 88 1018.6
20260506114121 59 180 1.0 3.0 0.00 0.00 0.00 88 1018.6
20260506114022 58 180 1.0 2.0 0.00 0.00 0.00 88 1018.6
20260506113922 58 158 1.0 4.0 0.00 0.00 0.00 88 1018.5
20260506113822 58 158 1.0 2.0 0.00 0.00 0.00 88 1018.6
20260506113721 58 135 1.0 2.0 0.00 0.00 0.00 88 1018.5
20260506113622 58 135 2.0 4.0 0.00 0.00 0.00 88 1018.5
20260506113522 58 203 3.0 5.0 0.00 0.00 0.00 88 1018.5
20260506113421 58 180 3.0 4.0 0.00 0.00 0.00 88 1018.5
20260506113342 58 203 2.0 5.0 0.00 0.00 0.00 88 1018.6
20260506113222 58 203 4.0 7.0 0.00 0.00 0.00 88 1018.6
20260506113142 58 158 1.0 2.0 0.00 0.00 0.00 88 1018.6
20260506113042 58 225 2.0 4.0 0.00 0.00 0.00 88 1018.7
20260506112921 58 225 1.0 3.0 0.00 0.00 0.00 88 1018.6
20260506112821 58 203 2.0 4.0 0.00 0.00 0.00 88 1018.7
20260506112722 58 270 3.0 7.0 0.00 0.00 0.00 88 1018.7
20260506112621 58 158 2.0 5.0 0.00 0.00 0.00 88 1018.7
20260506112523 58 180 1.0 3.0 0.00 0.00 0.00 88 1018.7
20260506112442 58 203 2.0 3.0 0.00 0.00 0.00 88 1018.6
20260506112321 58 90 2.0 3.0 0.00 0.00 0.00 88 1018.7
20260506112223 58 0.0 2.0 0.00 0.00 0.00 88 1018.7
20260506112122 58 203 3.0 8.0 0.00 0.00 0.00 88 1018.7
20260506112022 58 225 3.0 6.0 0.00 0.00 0.00 88 1018.7
20260506111922 58 158 3.0 4.0 0.00 0.00 0.00 88 1018.7
20260506111823 58 203 3.0 5.0 0.00 0.00 0.00 88 1018.8
20260506111802 58 225 1.0 7.0 0.00 0.00 0.00 88 1018.8
20260506111622 58 225 1.0 3.0 0.00 0.00 0.00 88 1018.7
20260506111522 58 203 2.0 3.0 0.00 0.00 0.00 88 1018.8
20260506111421 58 203 5.0 8.0 0.00 0.00 0.00 88 1018.8
20260506111322 58 180 1.0 3.0 0.00 0.00 0.00 88 1018.7
20260506111222 58 225 1.0 1.0 0.00 0.00 0.00 88 1018.7
20260506111141 58 225 4.0 9.0 0.00 0.00 0.00 88 1018.7
20260506111021 58 225 1.0 2.0 0.00 0.00 0.00 88 1018.7
20260506110921 58 158 3.0 6.0 0.00 0.00 0.00 88 1018.6
20260506110821 58 180 3.0 9.0 0.00 0.00 0.00 88 1018.6
20260506110722 58 158 1.0 2.0 0.00 0.00 0.00 88 1018.6
20260506110622 58 158 3.0 7.0 0.00 0.00 0.00 88 1018.7
20260506110521 58 225 3.0 5.0 0.00 0.00 0.00 88 1018.7
20260506110422 58 203 4.0 7.0 0.00 0.00 0.00 88 1018.7
20260506110323 58 203 3.0 5.0 0.00 0.00 0.00 89 1018.7
20260506110221 58 203 2.0 6.0 0.00 0.00 0.00 89 1018.8
20260506110122 58 203 3.0 5.0 0.00 0.00 0.00 89 1018.8
20260506110042 58 225 2.0 5.0 0.00 0.00 0.00 89 1018.8
20260506105924 58 180 1.0 4.0 0.00 0.00 0.00 89 1018.8
20260506105824 57 180 5.0 10.0 0.00 0.00 0.00 89 1018.8
20260506105722 57 248 2.0 4.0 0.00 0.00 0.00 89 1018.8
20260506105644 57 225 2.0 4.0 0.00 0.00 0.00 89 1018.8
20260506105522 57 248 1.0 2.0 0.00 0.00 0.00 89 1018.7
20260506105422 57 180 2.0 4.0 0.00 0.00 0.00 90 1018.7
20260506105322 57 270 1.0 4.0 0.00 0.00 0.00 90 1018.7
20260506105222 57 225 2.0 3.0 0.00 0.00 0.00 90 1018.6
20260506105121 57 248 2.0 5.0 0.00 0.00 0.00 90 1018.7
20260506105022 57 248 1.0 3.0 0.00 0.00 0.00 90 1018.6
20260506104921 57 225 2.0 4.0 0.00 0.00 0.00 90 1018.6
20260506104821 57 203 2.0 4.0 0.00 0.00 0.00 90 1018.7
20260506104722 57 0.0 2.0 0.00 0.00 0.00 90 1018.6
20260506104621 57 0.0 0.0 0.00 0.00 0.00 90 1018.5
20260506104521 57 270 1.0 3.0 0.00 0.00 0.00 90 1018.6
20260506104422 57 248 2.0 6.0 0.00 0.00 0.00 90 1018.6
20260506104323 57 225 2.0 4.0 0.00 0.00 0.00 90 1018.5
20260506104222 57 225 3.0 7.0 0.00 0.00 0.00 90 1018.6
20260506104122 57 0.0 1.0 0.00 0.00 0.00 91 1018.5
20260506104023 56 225 1.0 3.0 0.00 0.00 0.00 91 1018.5
20260506103921 56 225 2.0 4.0 0.00 0.00 0.00 90 1018.5
20260506103821 56 225 3.0 6.0 0.00 0.00 0.00 91 1018.6
20260506103723 56 203 3.0 5.0 0.00 0.00 0.00 91 1018.6
20260506103622 56 225 3.0 5.0 0.00 0.00 0.00 91 1018.6
20260506103542 56 203 2.0 3.0 0.00 0.00 0.00 91 1018.6
20260506103422 56 203 2.0 4.0 0.00 0.00 0.00 91 1018.7
20260506103321 56 180 2.0 4.0 0.00 0.00 0.00 91 1018.7
20260506103221 56 180 1.0 4.0 0.00 0.00 0.00 91 1018.7
20260506103141 56 0.0 1.0 0.00 0.00 0.00 91 1018.7
20260506103021 56 0.0 1.0 0.00 0.00 0.00 91 1018.7
20260506102921 56 0.0 1.0 0.00 0.00 0.00 91 1018.7
20260506102822 56 180 2.0 3.0 0.00 0.00 0.00 91 1018.7
20260506102723 56 270 1.0 2.0 0.00 0.00 0.00 91 1018.7
20260506102623 56 203 1.0 3.0 0.00 0.00 0.00 91 1018.7
20260506102522 56 203 2.0 4.0 0.00 0.00 0.00 91 1018.7
20260506102424 56 0.0 1.0 0.00 0.00 0.00 91 1018.7
20260506102321 56 203 1.0 3.0 0.00 0.00 0.00 91 1018.7
20260506102221 56 203 1.0 3.0 0.00 0.00 0.00 91 1018.7
20260506102122 56 0.0 0.0 0.00 0.00 0.00 91 1018.7
20260506102021 56 0.0 1.0 0.00 0.00 0.00 91 1018.7
20260506101921 56 225 1.0 2.0 0.00 0.00 0.00 91 1018.7
20260506101821 56 203 1.0 2.0 0.00 0.00 0.00 91 1018.7
20260506101721 56 203 1.0 3.0 0.00 0.00 0.00 91 1018.6
20260506101621 56 203 2.0 3.0 0.00 0.00 0.00 91 1018.7
20260506101521 56 225 1.0 3.0 0.00 0.00 0.00 91 1018.6
20260506101422 56 0.0 2.0 0.00 0.00 0.00 91 1018.6
20260506101323 56 158 3.0 5.0 0.00 0.00 0.00 91 1018.6
20260506101222 56 0.0 2.0 0.00 0.00 0.00 91 1018.6
20260506101121 56 203 2.0 4.0 0.00 0.00 0.00 91 1018.6
20260506101022 56 203 1.0 4.0 0.00 0.00 0.00 90 1018.6
20260506100921 56 0.0 2.0 0.00 0.00 0.00 91 1018.6
20260506100821 56 203 1.0 2.0 0.00 0.00 0.00 91 1018.6
20260506100743 56 203 2.0 4.0 0.00 0.00 0.00 91 1018.6
20260506100621 56 203 1.0 2.0 0.00 0.00 0.00 91 1018.6
20260506100522 56 203 3.0 5.0 0.00 0.00 0.00 91 1018.6
20260506100423 56 248 3.0 4.0 0.00 0.00 0.00 91 1018.6
20260506100322 56 225 3.0 6.0 0.00 0.00 0.00 90 1018.5
20260506100221 56 225 1.0 2.0 0.00 0.00 0.00 90 1018.6
20260506100122 56 0.0 1.0 0.00 0.00 0.00 90 1018.5
20260506100021 56 0.0 1.0 0.00 0.00 0.00 90 1018.5
20260506095921 56 0.0 2.0 0.00 0.00 0.00 90 1018.5
20260506095822 56 225 1.0 2.0 0.00 0.00 0.00 91 1018.5
20260506095741 56 225 1.0 2.0 0.00 0.00 0.00 91 1018.6
20260506095621 56 225 2.0 3.0 0.00 0.00 0.00 91 1018.6
20260506095521 56 180 2.0 3.0 0.00 0.00 0.00 90 1018.6
20260506095421 56 203 1.0 1.0 0.00 0.00 0.00 91 1018.5
20260506095322 56 203 1.0 2.0 0.00 0.00 0.00 91 1018.5
20260506095221 56 203 1.0 3.0 0.00 0.00 0.00 91 1018.5
20260506095122 56 225 1.0 2.0 0.00 0.00 0.00 91 1018.5
20260506095021 56 225 1.0 2.0 0.00 0.00 0.00 91 1018.5
20260506094921 55 225 1.0 2.0 0.00 0.00 0.00 91 1018.5
20260506094821 55 203 2.0 4.0 0.00 0.00 0.00 90 1018.5
20260506094721 55 0.0 1.0 0.00 0.00 0.00 90 1018.5
20260506094621 55 203 1.0 2.0 0.00 0.00 0.00 90 1018.5
20260506094521 55 203 2.0 4.0 0.00 0.00 0.00 90 1018.5
20260506094421 55 180 2.0 4.0 0.00 0.00 0.00 90 1018.5
20260506094321 55 0.0 1.0 0.00 0.00 0.00 90 1018.4
20260506094222 55 0.0 0.0 0.00 0.00 0.00 90 1018.5
20260506094141 55 0.0 0.0 0.00 0.00 0.00 90 1018.4
20260506094041 56 0.0 1.0 0.00 0.00 0.00 90 1018.4
20260506093921 56 180 1.0 2.0 0.00 0.00 0.00 90 1018.4
20260506093821 56 180 1.0 2.0 0.00 0.00 0.00 90 1018.4
20260506093721 56 180 1.0 2.0 0.00 0.00 0.00 90 1018.4
20260506093621 56 180 1.0 2.0 0.00 0.00 0.00 90 1018.4
20260506093541 56 0.0 1.0 0.00 0.00 0.00 90 1018.4
20260506093421 56 180 1.0 3.0 0.00 0.00 0.00 90 1018.4
20260506093321 56 180 2.0 4.0 0.00 0.00 0.00 90 1018.3
20260506093221 56 0.0 1.0 0.00 0.00 0.00 90 1018.3
20260506093121 56 0.0 1.0 0.00 0.00 0.00 90 1018.3
20260506093023 56 180 2.0 3.0 0.00 0.00 0.00 90 1018.4
20260506092942 56 180 1.0 2.0 0.00 0.00 0.00 90 1018.4
20260506092841 56 180 2.0 4.0 0.00 0.00 0.00 90 1018.4
20260506092721 56 225 1.0 3.0 0.00 0.00 0.00 90 1018.5
20260506092621 56 248 1.0 2.0 0.00 0.00 0.00 90 1018.5
20260506092521 56 248 1.0 1.0 0.00 0.00 0.00 89 1018.5
20260506092421 56 248 1.0 2.0 0.00 0.00 0.00 89 1018.6
20260506092321 56 225 1.0 2.0 0.00 0.00 0.00 89 1018.6
20260506092221 56 225 1.0 2.0 0.00 0.00 0.00 89 1018.5
20260506092141 56 248 1.0 2.0 0.00 0.00 0.00 90 1018.6
20260506092102 56 225 1.0 2.0 0.00 0.00 0.00 90 1018.6
20260506091922 56 225 2.0 3.0 0.00 0.00 0.00 90 1018.6
20260506091821 56 225 2.0 3.0 0.00 0.00 0.00 89 1018.6
20260506091721 56 225 1.0 2.0 0.00 0.00 0.00 89 1018.7
20260506091623 56 225 2.0 3.0 0.00 0.00 0.00 89 1018.7
20260506091522 56 270 2.0 3.0 0.00 0.00 0.00 89 1018.7
20260506091423 56 270 1.0 2.0 0.00 0.00 0.00 89 1018.7
20260506091323 56 248 1.0 3.0 0.00 0.00 0.00 89 1018.6
20260506091242 56 0.0 1.0 0.00 0.00 0.00 89 1018.6
20260506091124 56 0.0 0.0 0.00 0.00 0.00 89 1018.6
20260506091021 56 0.0 0.0 0.00 0.00 0.00 89 1018.6
20260506090922 56 0.0 1.0 0.00 0.00 0.00 89 1018.6
20260506090822 56 0.0 1.0 0.00 0.00 0.00 89 1018.6
20260506090722 56 0.0 0.0 0.00 0.00 0.00 89 1018.6
20260506090621 56 0.0 0.0 0.00 0.00 0.00 89 1018.6
20260506090521 56 225 1.0 4.0 0.00 0.00 0.00 89 1018.7
20260506090421 56 180 1.0 2.0 0.00 0.00 0.00 89 1018.6
20260506090321 56 0.0 2.0 0.00 0.00 0.00 89 1018.7
20260506090221 56 180 1.0 2.0 0.00 0.00 0.00 89 1018.6
20260506090121 56 180 2.0 5.0 0.00 0.00 0.00 89 1018.7
20260506090103 56 225 1.0 2.0 0.00 0.00 0.00 89 1018.7
20260506085821 56 203 2.0 3.0 0.00 0.00 0.00 89 1018.7
20260506085721 56 203 1.0 4.0 0.00 0.00 0.00 89 1018.7
20260506085623 56 225 1.0 3.0 0.00 0.00 0.00 89 1018.7
20260506085521 56 225 3.0 5.0 0.00 0.00 0.00 89 1018.7
20260506085421 56 135 3.0 4.0 0.00 0.00 0.00 89 1018.7
20260506085321 56 203 2.0 3.0 0.00 0.00 0.00 89 1018.7
20260506085242 56 203 1.0 2.0 0.00 0.00 0.00 89 1018.7
20260506085121 56 203 1.0 2.0 0.00 0.00 0.00 89 1018.7
20260506085021 56 203 1.0 2.0 0.00 0.00 0.00 89 1018.7
20260506084922 56 203 1.0 3.0 0.00 0.00 0.00 89 1018.8
20260506084821 56 180 4.0 8.0 0.00 0.00 0.00 89 1018.8
20260506084721 56 203 1.0 4.0 0.00 0.00 0.00 89 1018.7
20260506084621 56 203 1.0 3.0 0.00 0.00 0.00 89 1018.8
20260506084522 56 0.0 2.0 0.00 0.00 0.00 89 1018.8
20260506084421 56 203 2.0 4.0 0.00 0.00 0.00 89 1018.8
20260506084321 56 203 2.0 3.0 0.00 0.00 0.00 89 1018.9
20260506084221 56 203 3.0 4.0 0.00 0.00 0.00 89 1018.8
20260506084121 56 0.0 1.0 0.00 0.00 0.00 89 1018.9
20260506084022 56 0.0 1.0 0.00 0.00 0.00 89 1018.9
20260506083941 56 203 2.0 3.0 0.00 0.00 0.00 89 1018.9
20260506083823 56 203 1.0 4.0 0.00 0.00 0.00 89 1018.9
20260506083721 56 135 1.0 2.0 0.00 0.00 0.00 89 1018.8
20260506083621 56 135 1.0 3.0 0.00 0.00 0.00 88 1018.8
20260506083602 56 203 2.0 4.0 0.00 0.00 0.00 88 1018.8
20260506083421 56 203 1.0 2.0 0.00 0.00 0.00 88 1018.9
20260506083321 56 0.0 0.0 0.00 0.00 0.00 88 1018.8
20260506083222 56 203 1.0 1.0 0.00 0.00 0.00 88 1018.9
20260506083142 56 203 2.0 3.0 0.00 0.00 0.00 88 1018.8
20260506083041 56 158 2.0 4.0 0.00 0.00 0.00 88 1018.8
20260506082923 56 158 1.0 4.0 0.00 0.00 0.00 88 1018.8
20260506082821 56 0.0 0.0 0.00 0.00 0.00 88 1018.8
20260506082721 56 0.0 3.0 0.00 0.00 0.00 88 1018.8
20260506082621 56 203 1.0 3.0 0.00 0.00 0.00 88 1018.8
20260506082521 56 203 1.0 3.0 0.00 0.00 0.00 88 1018.9
20260506082421 56 0.0 2.0 0.00 0.00 0.00 88 1018.9
20260506082321 56 203 1.0 2.0 0.00 0.00 0.00 88 1018.9
20260506082242 56 225 2.0 8.0 0.00 0.00 0.00 88 1018.9
20260506082122 56 225 2.0 3.0 0.00 0.00 0.00 88 1019.0
20260506082021 56 203 2.0 3.0 0.00 0.00 0.00 88 1018.9
20260506081921 56 180 2.0 3.0 0.00 0.00 0.00 88 1018.9
20260506081821 56 203 2.0 4.0 0.00 0.00 0.00 88 1018.8
20260506081721 56 203 1.0 1.0 0.00 0.00 0.00 88 1018.8
20260506081643 56 0.0 1.0 0.00 0.00 0.00 88 1018.8
20260506081541 56 203 1.0 1.0 0.00 0.00 0.00 88 1018.8
20260506081421 56 203 1.0 3.0 0.00 0.00 0.00 88 1018.8
20260506081321 56 203 2.0 5.0 0.00 0.00 0.00 88 1018.7
20260506081221 56 225 2.0 3.0 0.00 0.00 0.00 88 1018.8
20260506081121 56 225 3.0 7.0 0.00 0.00 0.00 88 1018.8
20260506081041 56 203 3.0 6.0 0.00 0.00 0.00 88 1018.8
20260506080921 56 225 2.0 5.0 0.00 0.00 0.00 88 1018.9
20260506080821 56 248 2.0 4.0 0.00 0.00 0.00 88 1018.8
20260506080721 56 203 3.0 5.0 0.00 0.00 0.00 88 1018.8
20260506080621 56 203 3.0 5.0 0.00 0.00 0.00 88 1018.7
20260506080522 56 180 2.0 6.0 0.00 0.00 0.00 88 1018.8
20260506080421 56 225 2.0 2.0 0.00 0.00 0.00 88 1018.7
20260506080321 56 203 2.0 3.0 0.00 0.00 0.00 88 1018.8
20260506080221 56 248 2.0 5.0 0.00 0.00 0.00 88 1018.8
20260506080122 56 225 2.0 6.0 0.00 0.00 0.00 87 1018.8
20260506073521 57 180 3.0 6.0 0.00 0.00 0.00 87 1019.0
20260506073421 57 180 2.0 3.0 0.00 0.00 0.00 87 1019.1
20260506073322 57 225 1.0 3.0 0.00 0.00 0.00 87 1019.1
20260506073222 57 0.0 1.0 0.00 0.00 0.00 87 1019.0
20260506073121 57 0.0 1.0 0.00 0.00 0.00 87 1019.0
20260506073022 57 225 1.0 3.0 0.00 0.00 0.00 87 1019.1
20260506072925 57 225 2.0 3.0 0.00 0.00 0.00 87 1019.0
20260506072822 57 225 1.0 2.0 0.00 0.00 0.00 87 1019.0
20260506072741 57 225 1.0 4.0 0.00 0.00 0.00 87 1019.0
20260506072622 57 203 1.0 2.0 0.00 0.00 0.00 87 1018.9
20260506072522 57 203 2.0 4.0 0.00 0.00 0.00 87 1018.9
20260506072421 57 225 3.0 7.0 0.00 0.00 0.00 87 1018.9
20260506072321 57 203 2.0 4.0 0.00 0.00 0.00 87 1019.0
20260506072223 57 203 2.0 5.0 0.00 0.00 0.00 87 1019.0
20260506072124 57 113 2.0 4.0 0.00 0.00 0.00 87 1018.9
20260506072021 57 203 3.0 5.0 0.00 0.00 0.00 86 1018.9
20260506071921 57 225 1.0 4.0 0.00 0.00 0.00 86 1019.0
20260506071821 57 0.0 1.0 0.00 0.00 0.00 86 1019.0
20260506071721 57 0.0 2.0 0.00 0.00 0.00 86 1019.0
20260506071621 57 0.0 0.0 0.00 0.00 0.00 86 1018.9
20260506071521 57 0.0 1.0 0.00 0.00 0.00 86 1019.0
20260506071423 57 203 2.0 4.0 0.00 0.00 0.00 86 1019.0
20260506071321 57 203 3.0 5.0 0.00 0.00 0.00 86 1019.0
20260506071301 57 203 1.0 3.0 0.00 0.00 0.00 86 1018.9
20260506071121 57 203 1.0 2.0 0.00 0.00 0.00 86 1019.0
20260506071041 57 203 2.0 3.0 0.00 0.00 0.00 86 1019.0
20260506070921 57 203 2.0 4.0 0.00 0.00 0.00 86 1019.0
20260506070821 57 203 1.0 2.0 0.00 0.00 0.00 86 1019.0
20260506070721 57 203 2.0 4.0 0.00 0.00 0.00 86 1018.9
20260506070641 57 203 1.0 4.0 0.00 0.00 0.00 85 1019.0
20260506070522 57 0.0 2.0 0.00 0.00 0.00 85 1019.0
20260506070420 57 203 1.0 3.0 0.00 0.00 0.00 85 1019.0
20260506070320 57 203 2.0 4.0 0.00 0.00 0.00 85 1019.0
20260506070222 57 203 1.0 3.0 0.00 0.00 0.00 85 1019.0
20260506070121 57 203 1.0 2.0 0.00 0.00 0.00 85 1019.0
20260506062441 58 180 3.0 7.0 0.00 0.00 0.00 84 1019.0
20260506062321 58 203 4.0 9.0 0.00 0.00 0.00 83 1019.0
20260506062221 58 203 1.0 3.0 0.00 0.00 0.00 83 1019.0
20260506062121 58 203 1.0 3.0 0.00 0.00 0.00 83 1018.9
20260506062041 58 0.0 1.0 0.00 0.00 0.00 83 1018.9
20260506061920 58 203 1.0 3.0 0.00 0.00 0.00 83 1019.0
20260506061822 58 203 1.0 3.0 0.00 0.00 0.00 83 1019.0
20260506061721 58 203 3.0 5.0 0.00 0.00 0.00 83 1018.9
20260506061621 58 225 2.0 4.0 0.00 0.00 0.00 83 1019.0
20260506061602 58 225 3.0 7.0 0.00 0.00 0.00 83 1019.0
20260506061421 58 225 2.0 4.0 0.00 0.00 0.00 83 1019.0
20260506061321 58 180 3.0 5.0 0.00 0.00 0.00 83 1019.0
20260506061221 58 203 3.0 4.0 0.00 0.00 0.00 83 1019.0
20260506061121 58 180 1.0 2.0 0.00 0.00 0.00 83 1019.0
20260506061101 58 180 4.0 6.0 0.00 0.00 0.00 83 1019.0
20260506060921 59 180 2.0 5.0 0.00 0.00 0.00 83 1019.0
20260506060822 59 180 2.0 6.0 0.00 0.00 0.00 83 1019.0
20260506060721 59 203 5.0 9.0 0.00 0.00 0.00 82 1019.0
20260506060621 59 203 3.0 6.0 0.00 0.00 0.00 82 1019.0
20260506060521 59 225 4.0 9.0 0.00 0.00 0.00 83 1019.0
20260506060421 59 180 3.0 5.0 0.00 0.00 0.00 82 1018.9
20260506060321 59 203 3.0 5.0 0.00 0.00 0.00 82 1019.0
20260506060220 59 203 3.0 5.0 0.00 0.00 0.00 82 1019.0
20260506060121 59 203 3.0 6.0 0.00 0.00 0.00 82 1018.9
20260506051321 60 225 2.0 4.0 0.00 0.00 0.00 80 1019.1
20260506051241 60 180 2.0 3.0 0.00 0.00 0.00 80 1019.0
20260506051121 60 203 3.0 7.0 0.00 0.00 0.00 80 1019.1
20260506051020 60 180 3.0 7.0 0.00 0.00 0.00 80 1019.0
20260506050920 60 180 3.0 8.0 0.00 0.00 0.00 80 1019.1
20260506050820 60 203 4.0 7.0 0.00 0.00 0.00 80 1019.1
20260506050721 60 180 2.0 6.0 0.00 0.00 0.00 80 1019.1
20260506050622 60 180 3.0 6.0 0.00 0.00 0.00 80 1019.1
20260506050542 60 203 2.0 10.0 0.00 0.00 0.00 80 1019.2
20260506050424 60 203 4.0 10.0 0.00 0.00 0.00 80 1019.3
20260506050322 60 180 1.0 3.0 0.00 0.00 0.00 80 1019.2
20260506050221 60 180 1.0 2.0 0.00 0.00 0.00 80 1019.2
20260506050201 60 0.0 1.0 0.00 0.00 0.00 80 1019.3
20260506045123 60 248 1.0 3.0 0.00 0.00 0.00 79 1019.2
20260506045023 60 203 1.0 3.0 0.00 0.00 0.00 79 1019.3
20260506044921 60 0.0 2.0 0.00 0.00 0.00 79 1019.2
20260506044841 60 0.0 2.0 0.00 0.00 0.00 79 1019.2
20260506044722 60 0.0 1.0 0.00 0.00 0.00 79 1019.2
20260506044622 60 0.0 2.0 0.00 0.00 0.00 79 1019.2
20260506044521 61 203 1.0 3.0 0.00 0.00 0.00 79 1019.1
20260506044440 61 225 1.0 2.0 0.00 0.00 0.00 79 1019.1
20260506044341 61 225 2.0 3.0 0.00 0.00 0.00 79 1019.1
20260506044241 61 203 2.0 4.0 0.00 0.00 0.00 79 1019.2
20260506044121 61 225 1.0 2.0 0.00 0.00 0.00 79 1019.2
20260506044101 61 225 2.0 4.0 0.00 0.00 0.00 78 1019.2
20260506043922 61 203 2.0 4.0 0.00 0.00 0.00 78 1019.3
20260506043822 61 180 2.0 3.0 0.00 0.00 0.00 78 1019.2
20260506043743 61 225 3.0 4.0 0.00 0.00 0.00 78 1019.3
20260506043622 61 180 2.0 4.0 0.00 0.00 0.00 78 1019.3
20260506043542 61 180 1.0 3.0 0.00 0.00 0.00 78 1019.3
20260506043424 61 180 1.0 3.0 0.00 0.00 0.00 78 1019.3
20260506043320 61 180 1.0 1.0 0.00 0.00 0.00 78 1019.3
20260506043220 61 180 1.0 2.0 0.00 0.00 0.00 78 1019.3
20260506043120 61 180 1.0 2.0 0.00 0.00 0.00 78 1019.3
20260506043041 61 180 2.0 4.0 0.00 0.00 0.00 78 1019.3
20260506042920 61 180 1.0 2.0 0.00 0.00 0.00 78 1019.3
20260506042823 61 180 2.0 4.0 0.00 0.00 0.00 78 1019.3
20260506042742 61 203 1.0 3.0 0.00 0.00 0.00 78 1019.3
20260506042622 61 203 2.0 4.0 0.00 0.00 0.00 78 1019.3
20260506042522 61 180 1.0 3.0 0.00 0.00 0.00 78 1019.3
20260506042422 61 180 3.0 5.0 0.00 0.00 0.00 78 1019.3
20260506042343 61 225 2.0 5.0 0.00 0.00 0.00 78 1019.3
20260506042221 61 248 1.0 4.0 0.00 0.00 0.00 77 1019.3
20260506042120 61 248 1.0 2.0 0.00 0.00 0.00 77 1019.3
20260506042021 61 203 2.0 4.0 0.00 0.00 0.00 77 1019.3
20260506041920 61 0.0 1.0 0.00 0.00 0.00 77 1019.3
20260506041820 61 0.0 1.0 0.00 0.00 0.00 77 1019.3
20260506041743 61 203 3.0 5.0 0.00 0.00 0.00 77 1019.3
20260506041629 61 203 2.0 8.0 0.00 0.00 0.00 77 1019.3
20260506041522 61 203 2.0 5.0 0.00 0.00 0.00 77 1019.3
20260506041422 61 203 3.0 9.0 0.00 0.00 0.00 77 1019.3
20260506041324 62 203 1.0 2.0 0.00 0.00 0.00 77 1019.3
20260506041244 62 203 1.0 2.0 0.00 0.00 0.00 77 1019.3
20260506041121 62 225 4.0 6.0 0.00 0.00 0.00 77 1019.3
20260506041021 62 203 1.0 4.0 0.00 0.00 0.00 77 1019.3
20260506040921 62 203 1.0 4.0 0.00 0.00 0.00 77 1019.3
20260506040820 62 180 4.0 5.0 0.00 0.00 0.00 77 1019.3
20260506040741 62 248 3.0 4.0 0.00 0.00 0.00 77 1019.3
20260506040622 62 203 4.0 6.0 0.00 0.00 0.00 77 1019.3
20260506040522 62 0.0 3.0 0.00 0.00 0.00 77 1019.4
20260506040422 62 0.0 2.0 0.00 0.00 0.00 77 1019.3
20260506040322 62 158 2.0 3.0 0.00 0.00 0.00 77 1019.3
20260506040222 62 180 3.0 7.0 0.00 0.00 0.00 77 1019.3
20260506040122 62 270 3.0 7.0 0.00 0.00 0.00 77 1019.3
20260506040021 62 203 3.0 8.0 0.00 0.00 0.00 77 1019.4
20260506035922 62 270 3.0 6.0 0.00 0.00 0.00 77 1019.3
20260506035843 62 158 2.0 5.0 0.00 0.00 0.00 77 1019.3
20260506035723 62 158 1.0 4.0 0.00 0.00 0.00 77 1019.3
20260506035622 62 158 2.0 4.0 0.00 0.00 0.00 77 1019.3
20260506035525 62 158 2.0 5.0 0.00 0.00 0.00 77 1019.4
20260506035423 62 203 2.0 6.0 0.00 0.00 0.00 76 1019.4
20260506035322 62 203 2.0 3.0 0.00 0.00 0.00 76 1019.3
20260506035222 62 248 2.0 4.0 0.00 0.00 0.00 76 1019.4
20260506035123 62 203 3.0 5.0 0.00 0.00 0.00 76 1019.3
20260506035022 62 225 3.0 4.0 0.00 0.00 0.00 76 1019.3
20260506034922 62 203 3.0 8.0 0.00 0.00 0.00 76 1019.3
20260506034822 62 203 2.0 7.0 0.00 0.00 0.00 76 1019.3
20260506034722 62 158 5.0 8.0 0.00 0.00 0.00 76 1019.2
20260506034622 62 270 2.0 6.0 0.00 0.00 0.00 76 1019.2
20260506034522 62 203 2.0 3.0 0.00 0.00 0.00 76 1019.3
20260506034424 62 203 2.0 3.0 0.00 0.00 0.00 76 1019.3
20260506034341 62 158 2.0 4.0 0.00 0.00 0.00 76 1019.3
20260506034321 62 225 2.0 4.0 0.00 0.00 0.00 76 1019.3
20260506034121 62 180 2.0 3.0 0.00 0.00 0.00 76 1019.1
20260506034020 62 180 1.0 2.0 0.00 0.00 0.00 76 1019.3
20260506033923 62 0.0 1.0 0.00 0.00 0.00 76 1019.2
20260506033822 62 158 1.0 2.0 0.00 0.00 0.00 76 1019.2
20260506033742 62 0.0 1.0 0.00 0.00 0.00 76 1019.3
20260506033622 62 158 1.0 2.0 0.00 0.00 0.00 76 1019.2
20260506033522 62 225 6.0 11.0 0.00 0.00 0.00 76 1019.2
20260506033442 62 225 4.0 7.0 0.00 0.00 0.00 76 1019.2
20260506033322 62 203 3.0 9.0 0.00 0.00 0.00 76 1019.2
20260506033223 62 203 1.0 3.0 0.00 0.00 0.00 76 1019.2
20260506033120 62 225 1.0 2.0 0.00 0.00 0.00 76 1019.2
20260506033020 62 225 2.0 6.0 0.00 0.00 0.00 76 1019.2
20260506032921 62 203 2.0 4.0 0.00 0.00 0.00 76 1019.2
20260506032842 62 0.0 1.0 0.00 0.00 0.00 76 1019.2
20260506032722 62 248 2.0 3.0 0.00 0.00 0.00 76 1019.2
20260506032622 62 203 2.0 4.0 0.00 0.00 0.00 76 1019.2
20260506032522 62 158 3.0 5.0 0.00 0.00 0.00 76 1019.1
20260506032422 62 225 3.0 6.0 0.00 0.00 0.00 76 1019.2
20260506032323 62 203 3.0 6.0 0.00 0.00 0.00 76 1019.1
20260506032223 62 203 2.0 4.0 0.00 0.00 0.00 76 1019.1
20260506032142 62 203 2.0 4.0 0.00 0.00 0.00 76 1019.2
20260506032022 62 203 1.0 3.0 0.00 0.00 0.00 76 1019.2
20260506032003 62 203 2.0 3.0 0.00 0.00 0.00 76 1019.1
20260506031820 62 248 2.0 4.0 0.00 0.00 0.00 76 1019.2
20260506031722 62 225 3.0 5.0 0.00 0.00 0.00 76 1019.1
20260506031622 62 203 5.0 11.0 0.00 0.00 0.00 76 1019.2
20260506031522 62 225 4.0 7.0 0.00 0.00 0.00 76 1019.1
20260506031422 62 180 6.0 12.0 0.00 0.00 0.00 76 1019.1
20260506031322 62 248 4.0 7.0 0.00 0.00 0.00 76 1019.1
20260506031223 62 180 4.0 8.0 0.00 0.00 0.00 76 1019.1
20260506031124 62 180 3.0 8.0 0.00 0.00 0.00 76 1019.1
20260506031024 62 180 3.0 5.0 0.00 0.00 0.00 76 1019.1
20260506030943 62 225 3.0 5.0 0.00 0.00 0.00 75 1019.1
20260506030824 62 203 3.0 7.0 0.00 0.00 0.00 75 1019.2
20260506030720 62 225 2.0 3.0 0.00 0.00 0.00 75 1019.2
20260506030623 62 135 3.0 5.0 0.00 0.00 0.00 75 1019.3
20260506030522 62 203 3.0 5.0 0.00 0.00 0.00 75 1019.2
20260506030422 62 225 2.0 4.0 0.00 0.00 0.00 75 1019.2
20260506030322 62 225 4.0 8.0 0.00 0.00 0.00 75 1019.1
20260506030222 62 248 4.0 5.0 0.00 0.00 0.00 75 1019.2
20260506030122 62 248 3.0 6.0 0.00 0.00 0.00 75 1019.3
20260506030022 62 203 3.0 6.0 0.00 0.00 0.00 75 1019.2
20260506025922 62 248 2.0 4.0 0.00 0.00 0.00 74 1019.2
20260506025822 62 203 4.0 6.0 0.00 0.00 0.00 74 1019.3
20260506025722 62 225 4.0 7.0 0.00 0.00 0.00 74 1019.3
20260506025623 62 270 4.0 6.0 0.00 0.00 0.00 74 1019.2
20260506025422 62 225 3.0 5.0 0.00 0.00 0.00 74 1019.3
20260506025342 62 194 6.0 0.0 0.00 0.00 0.00 73 1019.3
20260506025224 62 194 6.0 0.0 0.00 0.00 0.00 73 1019.3
20260506025143 62 203 3.0 6.0 0.00 0.00 0.00 73 1019.3
20260506025023 62 248 2.0 3.0 0.00 0.00 0.00 73 1019.3
20260506024922 62 203 5.0 9.0 0.00 0.00 0.00 74 1019.2
20260506024824 62 270 6.0 11.0 0.00 0.00 0.00 73 1019.3
20260506024724 62 203 4.0 7.0 0.00 0.00 0.00 73 1019.3
20260506024622 62 180 2.0 4.0 0.00 0.00 0.00 73 1019.3
20260506024523 62 225 6.0 11.0 0.00 0.00 0.00 73 1019.4
20260506024422 62 203 3.0 5.0 0.00 0.00 0.00 73 1019.3
20260506024322 62 180 3.0 6.0 0.00 0.00 0.00 73 1019.3
20260506024242 62 180 1.0 3.0 0.00 0.00 0.00 73 1019.2
20260506024122 62 203 4.0 9.0 0.00 0.00 0.00 72 1019.2
20260506024022 62 225 4.0 7.0 0.00 0.00 0.00 72 1019.2
20260506023922 63 203 5.0 7.0 0.00 0.00 0.00 72 1019.2
20260506023822 62 203 5.0 10.0 0.00 0.00 0.00 72 1019.2
20260506023722 63 248 4.0 7.0 0.00 0.00 0.00 72 1019.2
20260506023622 63 203 3.0 5.0 0.00 0.00 0.00 72 1019.2
20260506023522 63 180 4.0 6.0 0.00 0.00 0.00 72 1019.2
20260506023422 63 203 3.0 6.0 0.00 0.00 0.00 72 1019.1
20260506023322 63 203 3.0 6.0 0.00 0.00 0.00 71 1019.2
20260506023222 63 180 4.0 7.0 0.00 0.00 0.00 71 1019.2
20260506023122 63 203 4.0 7.0 0.00 0.00 0.00 71 1019.2
20260506023022 63 225 3.0 9.0 0.00 0.00 0.00 71 1019.2
20260506022922 63 225 1.0 2.0 0.00 0.00 0.00 71 1019.2
20260506022825 63 248 2.0 4.0 0.00 0.00 0.00 71 1019.2
20260506022723 63 180 4.0 7.0 0.00 0.00 0.00 71 1019.2
20260506022643 63 248 5.0 8.0 0.00 0.00 0.00 71 1019.2
20260506022522 63 225 5.0 10.0 0.00 0.00 0.00 71 1019.2
20260506022422 63 203 4.0 11.0 0.00 0.00 0.00 71 1019.2
20260506022322 63 203 4.0 9.0 0.00 0.00 0.00 71 1019.3
20260506022222 63 203 6.0 10.0 0.00 0.00 0.00 71 1019.3
20260506022122 63 225 4.0 7.0 0.00 0.00 0.00 71 1019.3
20260506022102 63 180 3.0 6.0 0.00 0.00 0.00 71 1019.2
20260506021942 63 203 6.0 10.0 0.00 0.00 0.00 71 1019.2
20260506021822 63 248 4.0 8.0 0.00 0.00 0.00 71 1019.2
20260506021725 63 203 4.0 8.0 0.00 0.00 0.00 71 1019.1
20260506021622 63 203 3.0 7.0 0.00 0.00 0.00 71 1019.2
20260506021524 63 180 5.0 8.0 0.00 0.00 0.00 71 1019.1
20260506021424 63 203 3.0 6.0 0.00 0.00 0.00 71 1019.0
20260506021325 63 180 4.0 6.0 0.00 0.00 0.00 71 1019.0
20260506021225 63 270 5.0 12.0 0.00 0.00 0.00 71 1019.0
20260506021122 63 270 4.0 8.0 0.00 0.00 0.00 71 1019.1
20260506021024 63 203 3.0 5.0 0.00 0.00 0.00 71 1019.0
20260506020921 63 315 2.0 5.0 0.00 0.00 0.00 71 1019.0
20260506020823 63 180 4.0 6.0 0.00 0.00 0.00 71 1018.9
20260506020722 63 270 5.0 10.0 0.00 0.00 0.00 71 1018.9
20260506020623 63 225 4.0 7.0 0.00 0.00 0.00 71 1018.9
20260506020543 63 180 4.0 8.0 0.00 0.00 0.00 71 1018.9
20260506020442 63 270 2.0 4.0 0.00 0.00 0.00 71 1019.0
20260506020322 63 270 4.0 7.0 0.00 0.00 0.00 71 1018.9
20260506020222 63 293 2.0 5.0 0.00 0.00 0.00 71 1018.9
20260506020122 63 225 2.0 8.0 0.00 0.00 0.00 71 1018.8
20260506020022 63 225 1.0 3.0 0.00 0.00 0.00 71 1018.8
20260506015922 63 225 4.0 9.0 0.00 0.00 0.00 70 1018.8
20260506015822 63 225 3.0 4.0 0.00 0.00 0.00 70 1018.8
20260506015722 63 203 3.0 6.0 0.00 0.00 0.00 70 1018.8
20260506015622 63 225 3.0 6.0 0.00 0.00 0.00 70 1018.8
20260506015523 63 180 3.0 6.0 0.00 0.00 0.00 71 1018.7
20260506015424 63 225 2.0 4.0 0.00 0.00 0.00 70 1018.8
20260506015342 63 203 4.0 7.0 0.00 0.00 0.00 70 1018.8
20260506015222 63 248 2.0 6.0 0.00 0.00 0.00 70 1018.8
20260506015122 63 225 2.0 3.0 0.00 0.00 0.00 70 1018.8
20260506015024 63 248 2.0 5.0 0.00 0.00 0.00 70 1018.8
20260506014923 63 203 4.0 7.0 0.00 0.00 0.00 70 1018.7
20260506014822 63 203 7.0 12.0 0.00 0.00 0.00 70 1018.8
20260506014722 63 248 3.0 7.0 0.00 0.00 0.00 70 1018.8
20260506014642 63 180 3.0 6.0 0.00 0.00 0.00 70 1018.8
20260506014522 63 180 3.0 5.0 0.00 0.00 0.00 70 1018.8
20260506014422 63 203 4.0 8.0 0.00 0.00 0.00 70 1018.7
20260506014323 63 203 3.0 7.0 0.00 0.00 0.00 70 1018.8
20260506014222 63 203 4.0 5.0 0.00 0.00 0.00 70 1018.7
20260506014122 63 180 5.0 8.0 0.00 0.00 0.00 70 1018.6
20260506014043 63 203 4.0 10.0 0.00 0.00 0.00 70 1018.6
20260506013922 63 225 2.0 4.0 0.00 0.00 0.00 70 1018.6
20260506013822 63 203 5.0 11.0 0.00 0.00 0.00 70 1018.6
20260506013722 63 248 2.0 4.0 0.00 0.00 0.00 70 1018.6
20260506013622 63 225 4.0 6.0 0.00 0.00 0.00 70 1018.7
20260506013522 63 225 2.0 2.0 0.00 0.00 0.00 70 1018.6
20260506013422 63 225 4.0 6.0 0.00 0.00 0.00 70 1018.6
20260506013343 63 270 2.0 5.0 0.00 0.00 0.00 70 1018.6
20260506013223 63 270 2.0 4.0 0.00 0.00 0.00 70 1018.5
20260506013122 63 180 2.0 4.0 0.00 0.00 0.00 70 1018.5
20260506013023 63 225 4.0 7.0 0.00 0.00 0.00 70 1018.5
20260506012922 63 248 4.0 11.0 0.00 0.00 0.00 70 1018.5
20260506012822 63 248 2.0 3.0 0.00 0.00 0.00 70 1018.5
20260506012722 63 180 2.0 3.0 0.00 0.00 0.00 70 1018.5
20260506012642 63 180 4.0 6.0 0.00 0.00 0.00 70 1018.6
20260506012542 63 203 3.0 4.0 0.00 0.00 0.00 70 1018.6
20260506012442 63 180 4.0 7.0 0.00 0.00 0.00 70 1018.6
20260506012322 63 203 2.0 5.0 0.00 0.00 0.00 70 1018.5
20260506012224 63 203 3.0 5.0 0.00 0.00 0.00 69 1018.5
20260506012123 63 225 3.0 4.0 0.00 0.00 0.00 70 1018.5
20260506012025 63 203 3.0 6.0 0.00 0.00 0.00 70 1018.5
20260506011922 63 203 4.0 7.0 0.00 0.00 0.00 69 1018.5
20260506011842 63 203 6.0 11.0 0.00 0.00 0.00 69 1018.5
20260506011722 63 225 5.0 9.0 0.00 0.00 0.00 70 1018.4
20260506011622 63 203 7.0 11.0 0.00 0.00 0.00 70 1018.5
20260506011522 63 203 2.0 3.0 0.00 0.00 0.00 70 1018.5
20260506011423 63 203 3.0 4.0 0.00 0.00 0.00 70 1018.4
20260506011322 63 180 3.0 7.0 0.00 0.00 0.00 70 1018.4
20260506011223 63 180 4.0 8.0 0.00 0.00 0.00 70 1018.4
20260506011122 63 180 3.0 6.0 0.00 0.00 0.00 70 1018.4
20260506011022 63 203 3.0 8.0 0.00 0.00 0.00 70 1018.4
20260506010922 63 270 5.0 11.0 0.00 0.00 0.00 70 1018.4
20260506010823 63 225 3.0 8.0 0.00 0.00 0.00 70 1018.3
20260506010723 63 203 1.0 2.0 0.00 0.00 0.00 70 1018.3
20260506010622 63 203 3.0 6.0 0.00 0.00 0.00 70 1018.3
20260506010522 63 248 5.0 7.0 0.00 0.00 0.00 70 1018.3
20260506010422 63 225 3.0 5.0 0.00 0.00 0.00 70 1018.3
20260506010322 63 225 5.0 8.0 0.00 0.00 0.00 70 1018.3
20260506010242 63 180 2.0 8.0 0.00 0.00 0.00 70 1018.2
20260506010122 63 180 3.0 4.0 0.00 0.00 0.00 70 1018.2
20260506010022 63 225 5.0 11.0 0.00 0.00 0.00 70 1018.2
20260506005922 62 225 2.0 3.0 0.00 0.00 0.00 70 1018.2
20260506005822 62 248 7.0 11.0 0.00 0.00 0.00 70 1018.1
20260506005722 62 135 5.0 10.0 0.00 0.00 0.00 70 1018.2
20260506005623 62 203 3.0 7.0 0.00 0.00 0.00 71 1018.2
20260506005522 62 270 3.0 4.0 0.00 0.00 0.00 70 1018.2
20260506005422 62 270 2.0 3.0 0.00 0.00 0.00 70 1018.2
20260506005324 62 180 2.0 4.0 0.00 0.00 0.00 70 1018.2
20260506005222 62 180 1.0 5.0 0.00 0.00 0.00 70 1018.1
20260506005122 62 203 3.0 6.0 0.00 0.00 0.00 70 1018.2
20260506005022 62 293 3.0 9.0 0.00 0.00 0.00 70 1018.1
20260506004921 62 270 4.0 10.0 0.00 0.00 0.00 70 1018.1
20260506004822 62 203 5.0 11.0 0.00 0.00 0.00 70 1018.1
20260506004722 62 270 2.0 3.0 0.00 0.00 0.00 70 1018.1
20260506004623 63 203 4.0 6.0 0.00 0.00 0.00 70 1018.1
20260506004522 63 203 1.0 5.0 0.00 0.00 0.00 70 1018.1
20260506004422 63 180 1.0 2.0 0.00 0.00 0.00 70 1018.1
20260506004324 63 248 2.0 4.0 0.00 0.00 0.00 70 1018.0
20260506004242 63 203 2.0 5.0 0.00 0.00 0.00 70 1018.0
20260506004121 63 203 2.0 4.0 0.00 0.00 0.00 70 1018.1
20260506004022 63 225 3.0 7.0 0.00 0.00 0.00 70 1018.0
20260506003942 63 225 5.0 9.0 0.00 0.00 0.00 70 1018.1
20260506003822 63 270 2.0 4.0 0.00 0.00 0.00 70 1018.0
20260506003722 63 203 3.0 5.0 0.00 0.00 0.00 69 1018.0
20260506003622 63 225 3.0 10.0 0.00 0.00 0.00 70 1018.0
20260506003542 63 248 3.0 5.0 0.00 0.00 0.00 69 1018.0
20260506003442 63 270 4.0 7.0 0.00 0.00 0.00 69 1017.9
20260506003322 63 270 2.0 3.0 0.00 0.00 0.00 69 1018.0
20260506003222 63 225 1.0 2.0 0.00 0.00 0.00 69 1018.0
20260506003121 63 225 3.0 8.0 0.00 0.00 0.00 69 1017.9
20260506003021 63 225 3.0 9.0 0.00 0.00 0.00 69 1018.0
20260506002923 63 248 4.0 7.0 0.00 0.00 0.00 69 1017.9
20260506002824 63 270 6.0 12.0 0.00 0.00 0.00 69 1018.0
20260506002725 63 248 3.0 4.0 0.00 0.00 0.00 68 1017.9
20260506002622 63 248 3.0 5.0 0.00 0.00 0.00 68 1017.8
20260506002524 63 270 5.0 11.0 0.00 0.00 0.00 68 1017.8
20260506002422 63 270 2.0 6.0 0.00 0.00 0.00 68 1017.7
20260506002322 63 203 1.0 2.0 0.00 0.00 0.00 68 1017.7
20260506002222 63 203 2.0 5.0 0.00 0.00 0.00 68 1017.7
20260506002122 63 158 1.0 3.0 0.00 0.00 0.00 68 1017.8
20260506002022 63 203 3.0 5.0 0.00 0.00 0.00 68 1017.8
20260506001942 63 180 6.0 9.0 0.00 0.00 0.00 68 1017.8
20260506001842 63 180 5.0 9.0 0.00 0.00 0.00 68 1017.7
20260506001723 63 225 7.0 12.0 0.00 0.00 0.00 68 1017.8
20260506001622 63 225 4.0 10.0 0.00 0.00 0.00 68 1017.8
20260506001544 63 248 2.0 6.0 0.00 0.00 0.00 68 1017.8
20260506001422 63 203 3.0 6.0 0.00 0.00 0.00 68 1017.8
20260506001323 63 203 1.0 3.0 0.00 0.00 0.00 68 1017.7
20260506001222 63 203 2.0 4.0 0.00 0.00 0.00 68 1017.7
20260506001122 63 225 3.0 6.0 0.00 0.00 0.00 68 1017.6
20260506001022 64 203 5.0 10.0 0.00 0.00 0.00 68 1017.6
20260506000922 63 180 3.0 7.0 0.00 0.00 0.00 68 1017.7
20260506000822 63 180 4.0 7.0 0.00 0.00 0.00 68 1017.6
20260506000722 64 248 3.0 5.0 0.00 0.00 0.00 67 1017.6
20260506000623 64 180 4.0 6.0 0.00 0.00 0.00 67 1017.6
20260506000522 64 203 3.0 7.0 0.00 0.00 0.00 67 1017.5
20260506000423 64 203 3.0 4.0 0.00 0.00 0.00 67 1017.6
20260506000402 64 270 2.0 4.0 0.00 0.00 0.00 67 1017.6
20260506000242 64 248 3.0 4.0 0.00 0.00 0.00 67 1017.6
20260506000122 64 225 1.0 5.0 0.00 0.00 0.00 67 1017.5
20260505235922 64 180 3.0 4.0 0.00 0.00 0.00 67 1017.6
20260505235821 64 180 3.0 18.0 0.00 0.00 0.00 67 1017.5
20260505235722 64 203 6.0 18.0 0.00 0.00 0.00 67 1017.5
20260505235622 64 203 2.0 5.0 0.00 0.00 0.00 67 1017.5
20260505235521 64 248 3.0 7.0 0.00 0.00 0.00 67 1017.5
20260505235421 64 248 4.0 6.0 0.00 0.00 0.00 67 1017.4
20260505235322 64 248 7.0 14.0 0.00 0.00 0.00 67 1017.4
20260505235223 64 203 3.0 10.0 0.00 0.00 0.00 67 1017.4
20260505235202 64 225 5.0 9.0 0.00 0.00 0.00 67 1017.5
20260505235022 64 315 4.0 7.0 0.00 0.00 0.00 67 1017.4
20260505234921 64 203 2.0 4.0 0.00 0.00 0.00 67 1017.4
20260505234822 64 180 3.0 6.0 0.00 0.00 0.00 67 1017.3
20260505234722 64 203 4.0 6.0 0.00 0.00 0.00 67 1017.3
20260505234622 63 225 6.0 11.0 0.00 0.00 0.00 67 1017.3
20260505234522 63 180 6.0 15.0 0.00 0.00 0.00 68 1017.3
20260505234421 63 270 6.0 12.0 0.00 0.00 0.00 67 1017.2
20260505234322 63 203 5.0 15.0 0.00 0.00 0.00 67 1017.3
20260505234222 63 203 6.0 15.0 0.00 0.00 0.00 68 1017.3
20260505234123 63 225 3.0 6.0 0.00 0.00 0.00 67 1017.2
20260505234025 63 180 4.0 7.0 0.00 0.00 0.00 68 1017.2
20260505233923 63 180 3.0 6.0 0.00 0.00 0.00 68 1017.2
20260505233824 63 180 2.0 4.0 0.00 0.00 0.00 68 1017.2
20260505233722 63 248 2.0 4.0 0.00 0.00 0.00 68 1017.2
20260505233622 63 248 2.0 5.0 0.00 0.00 0.00 68 1017.2
20260505233521 63 225 5.0 10.0 0.00 0.00 0.00 67 1017.2
20260505233423 63 248 4.0 6.0 0.00 0.00 0.00 67 1017.2
20260505233323 63 203 2.0 4.0 0.00 0.00 0.00 67 1017.2
20260505233222 63 248 4.0 7.0 0.00 0.00 0.00 67 1017.1
20260505233144 64 203 5.0 8.0 0.00 0.00 0.00 67 1017.1
20260505233022 64 248 1.0 4.0 0.00 0.00 0.00 67 1017.1
20260505232922 64 248 2.0 4.0 0.00 0.00 0.00 67 1017.1
20260505232822 64 248 2.0 4.0 0.00 0.00 0.00 67 1017.1
20260505232722 64 203 4.0 5.0 0.00 0.00 0.00 67 1017.1
20260505232622 64 203 2.0 5.0 0.00 0.00 0.00 67 1017.1
20260505232542 64 225 5.0 7.0 0.00 0.00 0.00 67 1017.0
20260505232322 64 203 4.0 6.0 0.00 0.00 0.00 67 1017.0
20260505232221 64 203 4.0 11.0 0.00 0.00 0.00 67 1017.0
20260505232121 64 248 5.0 10.0 0.00 0.00 0.00 66 1017.0
20260505232022 64 180 5.0 7.0 0.00 0.00 0.00 66 1017.0
20260505231923 64 225 3.0 6.0 0.00 0.00 0.00 67 1017.0
20260505231822 64 158 2.0 4.0 0.00 0.00 0.00 67 1017.0
20260505231722 64 158 3.0 4.0 0.00 0.00 0.00 66 1017.0
20260505231622 64 203 4.0 8.0 0.00 0.00 0.00 66 1016.9
20260505231522 64 225 4.0 8.0 0.00 0.00 0.00 66 1016.9
20260505231422 64 203 3.0 5.0 0.00 0.00 0.00 66 1016.8
20260505231322 64 203 5.0 11.0 0.00 0.00 0.00 66 1016.9
20260505231222 64 203 6.0 9.0 0.00 0.00 0.00 66 1016.9
20260505231122 64 203 5.0 10.0 0.00 0.00 0.00 66 1016.9
20260505231022 65 203 3.0 6.0 0.00 0.00 0.00 66 1016.9
20260505230921 65 248 4.0 10.0 0.00 0.00 0.00 66 1016.8
20260505230821 65 248 4.0 10.0 0.00 0.00 0.00 66 1016.8
20260505230722 65 203 3.0 6.0 0.00 0.00 0.00 66 1016.9
20260505230622 65 248 3.0 5.0 0.00 0.00 0.00 66 1016.9
20260505230522 65 180 4.0 14.0 0.00 0.00 0.00 65 1016.8
20260505230421 65 248 5.0 13.0 0.00 0.00 0.00 65 1016.9
20260505230322 65 203 5.0 8.0 0.00 0.00 0.00 65 1016.8
20260505230241 65 180 5.0 9.0 0.00 0.00 0.00 66 1016.9
20260505230122 65 180 4.0 6.0 0.00 0.00 0.00 65 1016.9
20260505230022 65 135 3.0 6.0 0.00 0.00 0.00 65 1016.9
20260505225921 65 203 5.0 11.0 0.00 0.00 0.00 64 1016.8
20260505225842 66 180 5.0 9.0 0.00 0.00 0.00 65 1016.9
20260505225721 66 203 2.0 3.0 0.00 0.00 0.00 65 1016.8
20260505225621 66 248 3.0 5.0 0.00 0.00 0.00 65 1016.8
20260505225522 66 225 4.0 8.0 0.00 0.00 0.00 64 1016.8
20260505225422 66 225 4.0 8.0 0.00 0.00 0.00 64 1016.7
20260505225322 66 225 4.0 8.0 0.00 0.00 0.00 64 1016.7
20260505225223 66 225 5.0 7.0 0.00 0.00 0.00 63 1016.8
20260505225121 66 203 4.0 9.0 0.00 0.00 0.00 64 1016.7
20260505225021 66 203 6.0 9.0 0.00 0.00 0.00 63 1016.7
20260505224921 66 203 3.0 5.0 0.00 0.00 0.00 64 1016.8
20260505224821 66 203 3.0 5.0 0.00 0.00 0.00 63 1016.8
20260505224721 67 203 6.0 13.0 0.00 0.00 0.00 63 1016.8
20260505224621 67 225 4.0 8.0 0.00 0.00 0.00 63 1016.8
20260505224521 67 225 3.0 5.0 0.00 0.00 0.00 63 1016.7
20260505224424 67 225 2.0 4.0 0.00 0.00 0.00 63 1016.8
20260505224324 67 270 3.0 5.0 0.00 0.00 0.00 63 1016.8
20260505224225 67 203 4.0 8.0 0.00 0.00 0.00 62 1016.8
20260505224122 67 180 4.0 7.0 0.00 0.00 0.00 63 1016.9
20260505224024 67 248 3.0 4.0 0.00 0.00 0.00 63 1016.9
20260505223943 67 248 4.0 8.0 0.00 0.00 0.00 62 1017.0
20260505223824 67 203 5.0 11.0 0.00 0.00 0.00 62 1017.0
20260505223721 67 203 5.0 10.0 0.00 0.00 0.00 62 1017.0
20260505223621 67 180 7.0 10.0 0.00 0.00 0.00 62 1017.0
20260505223521 68 203 5.0 8.0 0.00 0.00 0.00 62 1017.0
20260505223423 68 248 5.0 9.0 0.00 0.00 0.00 62 1017.1
20260505223342 68 225 4.0 7.0 0.00 0.00 0.00 62 1017.1
20260505223222 68 248 3.0 7.0 0.00 0.00 0.00 62 1017.1
20260505223123 68 248 3.0 6.0 0.00 0.00 0.00 62 1017.0
20260505223022 68 225 2.0 4.0 0.00 0.00 0.00 62 1017.0
20260505222921 68 270 2.0 3.0 0.00 0.00 0.00 62 1017.1
20260505222823 68 180 2.0 3.0 0.00 0.00 0.00 62 1017.2
20260505222722 68 248 3.0 8.0 0.00 0.00 0.00 62 1017.0
20260505222642 68 180 3.0 5.0 0.00 0.00 0.00 62 1017.1
20260505222523 68 180 4.0 8.0 0.00 0.00 0.00 63 1017.0
20260505222422 68 203 5.0 9.0 0.00 0.00 0.00 62 1017.0
20260505222341 68 225 5.0 11.0 0.00 0.00 0.00 62 1017.1
20260505222221 68 203 3.0 7.0 0.00 0.00 0.00 62 1017.0
20260505222122 68 270 7.0 15.0 0.00 0.00 0.00 61 1017.0
20260505222021 68 203 4.0 6.0 0.00 0.00 0.00 62 1017.0
20260505221921 68 225 2.0 3.0 0.00 0.00 0.00 63 1017.0
20260505221821 68 180 3.0 5.0 0.00 0.00 0.00 62 1017.1
20260505221721 68 180 2.0 3.0 0.00 0.00 0.00 62 1017.0
20260505221621 68 180 3.0 8.0 0.00 0.00 0.00 62 1017.0
20260505221522 68 270 3.0 5.0 0.00 0.00 0.00 62 1017.0
20260505221422 68 248 2.0 3.0 0.00 0.00 0.00 62 1017.1
20260505221322 68 203 3.0 6.0 0.00 0.00 0.00 62 1017.0
20260505221224 68 225 5.0 7.0 0.00 0.00 0.00 62 1017.0
20260505221122 68 225 5.0 11.0 0.00 0.00 0.00 62 1017.0
20260505221021 68 203 3.0 6.0 0.00 0.00 0.00 62 1017.0
20260505220942 68 225 2.0 5.0 0.00 0.00 0.00 63 1017.0
20260505220821 68 225 1.0 3.0 0.00 0.00 0.00 63 1017.0
20260505220721 68 158 1.0 3.0 0.00 0.00 0.00 62 1017.0
20260505220621 68 158 4.0 8.0 0.00 0.00 0.00 63 1017.0
20260505220522 68 203 2.0 3.0 0.00 0.00 0.00 65 1017.0
20260505220442 68 203 2.0 4.0 0.00 0.00 0.00 62 1017.0
20260505220322 68 203 4.0 7.0 0.00 0.00 0.00 62 1017.0
20260505220221 68 203 4.0 11.0 0.00 0.00 0.00 62 1016.9
20260505220121 68 203 2.0 4.0 0.00 0.00 0.00 62 1016.9
20260505220021 68 225 3.0 9.0 0.00 0.00 0.00 62 1017.0
20260505215921 68 180 3.0 5.0 0.00 0.00 0.00 62 1016.9
20260505215821 68 180 5.0 8.0 0.00 0.00 0.00 62 1016.8
20260505215722 68 225 3.0 7.0 0.00 0.00 0.00 62 1016.9
20260505215621 68 203 7.0 11.0 0.00 0.00 0.00 61 1016.8
20260505215521 68 203 4.0 7.0 0.00 0.00 0.00 62 1016.9
20260505215421 69 203 4.0 8.0 0.00 0.00 0.00 62 1016.8
20260505215322 69 180 1.0 3.0 0.00 0.00 0.00 62 1016.8
20260505215225 69 180 1.0 3.0 0.00 0.00 0.00 62 1016.9
20260505215121 69 203 3.0 5.0 0.00 0.00 0.00 62 1016.9
20260505215021 69 225 2.0 3.0 0.00 0.00 0.00 62 1016.9
20260505214922 69 225 4.0 7.0 0.00 0.00 0.00 62 1016.9
20260505214822 69 225 4.0 7.0 0.00 0.00 0.00 62 1016.9
20260505214721 69 180 5.0 6.0 0.00 0.00 0.00 62 1016.9
20260505214621 69 225 3.0 6.0 0.00 0.00 0.00 63 1016.9
20260505214544 69 225 1.0 2.0 0.00 0.00 0.00 63 1016.9
20260505214421 68 225 3.0 7.0 0.00 0.00 0.00 63 1016.9
20260505214323 68 270 2.0 5.0 0.00 0.00 0.00 63 1016.9
20260505214222 68 248 2.0 5.0 0.00 0.00 0.00 63 1017.0
20260505214121 68 203 2.0 4.0 0.00 0.00 0.00 63 1016.9
20260505214021 68 203 3.0 4.0 0.00 0.00 0.00 63 1016.9
20260505214002 68 225 2.0 4.0 0.00 0.00 0.00 64 1016.8
20260505213822 68 225 4.0 11.0 0.00 0.00 0.00 63 1016.9
20260505213721 68 158 2.0 4.0 0.00 0.00 0.00 62 1016.9
20260505213621 68 203 5.0 11.0 0.00 0.00 0.00 62 1016.9
20260505213521 68 203 5.0 8.0 0.00 0.00 0.00 62 1016.8
20260505213421 69 203 3.0 6.0 0.00 0.00 0.00 63 1016.8
20260505213401 69 135 3.0 6.0 0.00 0.00 0.00 62 1016.8
20260505213222 69 180 5.0 9.0 0.00 0.00 0.00 63 1016.8
20260505213123 69 225 2.0 5.0 0.00 0.00 0.00 63 1016.9
20260505213022 69 225 1.0 3.0 0.00 0.00 0.00 63 1016.8
20260505212921 69 225 3.0 9.0 0.00 0.00 0.00 62 1016.8
20260505212822 69 180 4.0 7.0 0.00 0.00 0.00 61 1016.9
20260505212722 69 225 4.0 7.0 0.00 0.00 0.00 61 1016.8
20260505212621 69 203 4.0 9.0 0.00 0.00 0.00 60 1016.8
20260505212521 69 203 4.0 8.0 0.00 0.00 0.00 61 1016.8
20260505212422 69 203 2.0 6.0 0.00 0.00 0.00 62 1016.8
20260505212322 69 225 4.0 8.0 0.00 0.00 0.00 61 1016.8
20260505212221 69 225 5.0 13.0 0.00 0.00 0.00 61 1016.9
20260505212142 69 270 1.0 2.0 0.00 0.00 0.00 62 1016.8
20260505212043 69 270 3.0 6.0 0.00 0.00 0.00 61 1016.8
20260505211921 69 225 2.0 5.0 0.00 0.00 0.00 61 1016.7
20260505211821 69 203 5.0 11.0 0.00 0.00 0.00 60 1016.8
20260505211722 69 180 5.0 10.0 0.00 0.00 0.00 62 1016.8
20260505211621 69 203 4.0 7.0 0.00 0.00 0.00 61 1016.8
20260505211521 69 203 2.0 3.0 0.00 0.00 0.00 63 1016.8
20260505211441 69 225 4.0 7.0 0.00 0.00 0.00 60 1016.9
20260505211321 69 203 4.0 10.0 0.00 0.00 0.00 63 1016.8
20260505211221 69 180 3.0 5.0 0.00 0.00 0.00 63 1016.8
20260505211121 69 203 3.0 5.0 0.00 0.00 0.00 63 1016.9
20260505211021 69 180 3.0 6.0 0.00 0.00 0.00 62 1016.9
20260505210921 69 68 2.0 4.0 0.00 0.00 0.00 65 1016.9
20260505210822 69 45 3.0 5.0 0.00 0.00 0.00 62 1016.9
20260505210802 69 158 4.0 10.0 0.00 0.00 0.00 62 1017.0
20260505210621 69 180 3.0 5.0 0.00 0.00 0.00 62 1016.9
20260505210541 69 45 1.0 3.0 0.00 0.00 0.00 62 1016.9
20260505210421 69 180 2.0 4.0 0.00 0.00 0.00 64 1016.9
20260505210341 69 180 2.0 3.0 0.00 0.00 0.00 63 1016.9
20260505210221 69 158 4.0 6.0 0.00 0.00 0.00 62 1017.0
20260505210121 69 135 2.0 5.0 0.00 0.00 0.00 63 1016.9
20260505210021 69 135 2.0 5.0 0.00 0.00 0.00 64 1016.9
20260505205942 69 203 3.0 5.0 0.00 0.00 0.00 62 1016.9
20260505205823 69 203 3.0 6.0 0.00 0.00 0.00 62 1016.9
20260505205722 69 180 3.0 5.0 0.00 0.00 0.00 61 1016.8
20260505205622 70 158 5.0 7.0 0.00 0.00 0.00 61 1016.8
20260505205523 70 158 5.0 7.0 0.00 0.00 0.00 61 1016.8
20260505205423 70 158 2.0 6.0 0.00 0.00 0.00 62 1016.9
20260505205322 70 158 4.0 8.0 0.00 0.00 0.00 62 1016.8
20260505205222 70 158 3.0 5.0 0.00 0.00 0.00 62 1016.7
20260505205121 70 158 2.0 5.0 0.00 0.00 0.00 61 1016.7
20260505205022 70 158 2.0 3.0 0.00 0.00 0.00 61 1016.8
20260505204921 70 180 3.0 6.0 0.00 0.00 0.00 62 1016.7
20260505204821 70 225 2.0 5.0 0.00 0.00 0.00 63 1016.7
20260505204741 70 225 2.0 4.0 0.00 0.00 0.00 61 1016.7
20260505204622 70 203 2.0 7.0 0.00 0.00 0.00 62 1016.7
20260505204521 70 225 4.0 7.0 0.00 0.00 0.00 60 1016.6
20260505204423 70 180 4.0 10.0 0.00 0.00 0.00 62 1016.7
20260505204323 70 158 3.0 4.0 0.00 0.00 0.00 63 1016.7
20260505204223 70 225 2.0 5.0 0.00 0.00 0.00 62 1016.7
20260505204121 70 225 3.0 6.0 0.00 0.00 0.00 63 1016.7
20260505204021 70 248 1.0 2.0 0.00 0.00 0.00 63 1016.7
20260505203922 70 175 2.0 0.0 0.00 0.00 0.00 62 1016.7
20260505203822 70 175 2.0 0.0 0.00 0.00 0.00 62 1016.7
20260505203721 70 175 2.0 0.0 0.00 0.00 0.00 62 1016.7
20260505203622 70 180 4.0 5.0 0.00 0.00 0.00 62 1016.7
20260505203521 70 203 2.0 5.0 0.00 0.00 0.00 62 1016.8
20260505203421 70 203 2.0 3.0 0.00 0.00 0.00 62 1016.7
20260505203322 70 248 3.0 5.0 0.00 0.00 0.00 64 1016.8
20260505203241 70 203 2.0 3.0 0.00 0.00 0.00 61 1016.8
20260505203122 70 203 3.0 4.0 0.00 0.00 0.00 61 1016.8
20260505203021 70 180 3.0 7.0 0.00 0.00 0.00 62 1016.8
20260505202924 70 203 2.0 6.0 0.00 0.00 0.00 62 1016.9
20260505202821 70 180 4.0 9.0 0.00 0.00 0.00 61 1016.8
20260505202742 70 203 4.0 9.0 0.00 0.00 0.00 62 1016.9
20260505202722 70 203 2.0 4.0 0.00 0.00 0.00 63 1016.9
20260505202442 70 270 2.0 3.0 0.00 0.00 0.00 65 1016.8
20260505202324 70 158 1.0 2.0 0.00 0.00 0.00 64 1016.8
20260505202241 70 158 2.0 5.0 0.00 0.00 0.00 63 1016.8
20260505202141 70 203 3.0 4.0 0.00 0.00 0.00 67 1016.8
20260505202021 70 270 2.0 3.0 0.00 0.00 0.00 64 1016.9
20260505201921 70 203 2.0 3.0 0.00 0.00 0.00 62 1016.9
20260505201821 69 225 3.0 5.0 0.00 0.00 0.00 62 1016.9
20260505201721 69 180 2.0 5.0 0.00 0.00 0.00 64 1016.9
20260505201621 69 203 1.0 3.0 0.00 0.00 0.00 62 1016.9
20260505201521 69 225 4.0 7.0 0.00 0.00 0.00 63 1016.9
20260505201425 69 225 5.0 11.0 0.00 0.00 0.00 63 1016.9
20260505201321 69 248 1.0 3.0 0.00 0.00 0.00 65 1017.0
20260505201301 69 248 2.0 4.0 0.00 0.00 0.00 63 1016.9
20260505201121 69 248 3.0 4.0 0.00 0.00 0.00 63 1016.9
20260505201021 69 180 3.0 6.0 0.00 0.00 0.00 63 1016.9
20260505200941 69 180 5.0 11.0 0.00 0.00 0.00 62 1016.9
20260505200822 69 158 3.0 6.0 0.00 0.00 0.00 62 1016.9
20260505200723 69 158 3.0 6.0 0.00 0.00 0.00 63 1016.9
20260505200621 70 158 4.0 9.0 0.00 0.00 0.00 62 1016.9
20260505200601 70 158 4.0 5.0 0.00 0.00 0.00 62 1017.0
20260505200421 70 203 3.0 6.0 0.00 0.00 0.00 62 1017.0
20260505200323 70 225 2.0 6.0 0.00 0.00 0.00 63 1017.0
20260505200221 70 270 3.0 7.0 0.00 0.00 0.00 63 1016.9
20260505200122 69 203 2.0 5.0 0.00 0.00 0.00 62 1017.0
20260505200021 69 180 4.0 10.0 0.00 0.00 0.00 62 1017.0
20260505195921 70 248 3.0 5.0 0.00 0.00 0.00 62 1017.0
20260505195821 70 225 5.0 11.0 0.00 0.00 0.00 63 1017.0
20260505195722 70 180 2.0 4.0 0.00 0.00 0.00 64 1017.0
20260505195622 70 180 3.0 5.0 0.00 0.00 0.00 62 1017.1
20260505195522 70 180 2.0 5.0 0.00 0.00 0.00 63 1017.1
20260505195423 69 225 2.0 4.0 0.00 0.00 0.00 63 1017.1
20260505195321 70 203 4.0 7.0 0.00 0.00 0.00 62 1017.1
20260505195224 70 203 2.0 3.0 0.00 0.00 0.00 62 1017.1
20260505195121 70 203 3.0 6.0 0.00 0.00 0.00 62 1017.1
20260505195021 70 203 3.0 7.0 0.00 0.00 0.00 65 1017.2
20260505194941 70 203 3.0 6.0 0.00 0.00 0.00 62 1017.1
20260505194821 70 203 4.0 9.0 0.00 0.00 0.00 62 1017.1
20260505194721 70 180 4.0 6.0 0.00 0.00 0.00 62 1017.1
20260505194621 70 203 4.0 8.0 0.00 0.00 0.00 61 1017.0
20260505194542 70 90 3.0 8.0 0.00 0.00 0.00 61 1017.1
20260505194441 70 180 5.0 11.0 0.00 0.00 0.00 61 1017.2
20260505194341 70 203 3.0 4.0 0.00 0.00 0.00 61 1017.0
20260505194222 70 203 4.0 6.0 0.00 0.00 0.00 61 1017.0
20260505194121 70 135 3.0 7.0 0.00 0.00 0.00 61 1017.0
20260505194102 71 180 5.0 8.0 0.00 0.00 0.00 60 1017.1
20260505193921 71 158 5.0 8.0 0.00 0.00 0.00 60 1017.1
20260505193823 71 180 4.0 8.0 0.00 0.00 0.00 60 1017.1
20260505193741 71 248 2.0 4.0 0.00 0.00 0.00 60 1017.1
20260505193641 71 180 2.0 4.0 0.00 0.00 0.00 60 1017.1
20260505193521 71 225 4.0 6.0 0.00 0.00 0.00 60 1017.1
20260505193422 71 180 3.0 6.0 0.00 0.00 0.00 61 1017.2
20260505193321 71 180 3.0 6.0 0.00 0.00 0.00 62 1017.2
20260505193221 71 158 3.0 6.0 0.00 0.00 0.00 61 1017.2
20260505193121 71 180 4.0 7.0 0.00 0.00 0.00 60 1017.3
20260505193021 71 203 3.0 5.0 0.00 0.00 0.00 61 1017.3
20260505192941 71 180 3.0 5.0 0.00 0.00 0.00 60 1017.3
20260505192821 72 180 5.0 9.0 0.00 0.00 0.00 59 1017.2
20260505192721 72 203 4.0 8.0 0.00 0.00 0.00 60 1017.3
20260505192621 72 180 5.0 10.0 0.00 0.00 0.00 60 1017.3
20260505192522 72 203 3.0 5.0 0.00 0.00 0.00 60 1017.3
20260505192421 72 135 5.0 11.0 0.00 0.00 0.00 62 1017.3
20260505192321 72 225 1.0 4.0 0.00 0.00 0.00 61 1017.4
20260505192221 72 203 2.0 4.0 0.00 0.00 0.00 63 1017.4
20260505192121 72 45 1.0 2.0 0.00 0.00 0.00 62 1017.4
20260505192041 71 113 2.0 3.0 0.00 0.00 0.00 61 1017.4
20260505191921 71 180 3.0 5.0 0.00 0.00 0.00 62 1017.4
20260505191821 71 180 1.0 3.0 0.00 0.00 0.00 62 1017.5
20260505191721 71 158 5.0 8.0 0.00 0.00 0.00 60 1017.5
20260505191621 71 225 4.0 8.0 0.00 0.00 0.00 61 1017.5
20260505191522 71 203 3.0 5.0 0.00 0.00 0.00 63 1017.5
20260505191422 71 203 3.0 5.0 0.00 0.00 0.00 62 1017.6
20260505191324 71 203 5.0 9.0 0.00 0.00 0.00 60 1017.5
20260505191223 71 225 3.0 8.0 0.00 0.00 0.00 64 1017.6
20260505191143 71 315 2.0 3.0 0.00 0.00 0.00 65 1017.6
20260505191023 71 203 1.0 3.0 0.00 0.00 0.00 62 1017.6
20260505190921 71 180 3.0 8.0 0.00 0.00 0.00 62 1017.6
20260505190821 71 225 3.0 4.0 0.00 0.00 0.00 62 1017.6
20260505190721 71 203 3.0 5.0 0.00 0.00 0.00 62 1017.7
20260505190621 71 203 3.0 5.0 0.00 0.00 0.00 62 1017.7
20260505190521 71 203 4.0 7.0 0.00 0.00 0.00 61 1017.7
20260505190501 71 180 4.0 13.0 0.00 0.00 0.00 62 1017.8
20260505190321 71 180 3.0 5.0 0.00 0.00 0.00 62 1017.7
20260505190223 71 203 3.0 6.0 0.00 0.00 0.00 62 1017.7
20260505190121 71 225 3.0 5.0 0.00 0.00 0.00 63 1017.8
20260505190021 70 180 4.0 8.0 0.00 0.00 0.00 62 1017.7
20260505185923 70 180 4.0 5.0 0.00 0.00 0.00 62 1017.7
20260505185821 70 158 3.0 7.0 0.00 0.00 0.00 66 1017.7
20260505185721 70 158 1.0 1.0 0.00 0.00 0.00 65 1017.7
20260505185621 70 180 4.0 8.0 0.00 0.00 0.00 63 1017.7
20260505185521 70 180 5.0 9.0 0.00 0.00 0.00 63 1017.7
20260505185443 70 225 3.0 6.0 0.00 0.00 0.00 65 1017.8
20260505185402 70 158 2.0 4.0 0.00 0.00 0.00 63 1017.8
20260505185222 70 203 4.0 6.0 0.00 0.00 0.00 61 1017.8
20260505185122 70 203 4.0 8.0 0.00 0.00 0.00 62 1017.8
20260505185021 70 203 5.0 9.0 0.00 0.00 0.00 61 1017.8
20260505184922 70 158 4.0 7.0 0.00 0.00 0.00 62 1017.8
20260505184821 70 180 4.0 6.0 0.00 0.00 0.00 61 1017.8
20260505184721 70 158 5.0 8.0 0.00 0.00 0.00 62 1017.8
20260505184641 71 180 3.0 7.0 0.00 0.00 0.00 64 1017.8
20260505184521 71 225 3.0 5.0 0.00 0.00 0.00 63 1017.8
20260505184421 71 203 3.0 6.0 0.00 0.00 0.00 62 1017.8
20260505184321 71 203 4.0 7.0 0.00 0.00 0.00 62 1017.8
20260505184221 71 180 2.0 3.0 0.00 0.00 0.00 64 1017.9
20260505184122 71 203 4.0 7.0 0.00 0.00 0.00 61 1017.8
20260505184022 71 203 3.0 6.0 0.00 0.00 0.00 62 1017.8
20260505183942 71 203 4.0 7.0 0.00 0.00 0.00 63 1017.9
20260505183822 71 180 4.0 7.0 0.00 0.00 0.00 62 1017.8
20260505183721 71 203 3.0 5.0 0.00 0.00 0.00 62 1017.8
20260505183622 71 203 4.0 7.0 0.00 0.00 0.00 63 1017.8
20260505183541 71 180 3.0 5.0 0.00 0.00 0.00 60 1017.8
20260505183422 71 225 5.0 10.0 0.00 0.00 0.00 61 1017.8
20260505183341 71 203 2.0 4.0 0.00 0.00 0.00 63 1017.7
20260505183221 71 203 3.0 7.0 0.00 0.00 0.00 61 1017.8
20260505183121 71 180 4.0 8.0 0.00 0.00 0.00 61 1017.7
20260505183021 71 225 2.0 4.0 0.00 0.00 0.00 63 1017.7
20260505182921 71 158 3.0 5.0 0.00 0.00 0.00 61 1017.7
20260505182821 71 180 3.0 13.0 0.00 0.00 0.00 61 1017.7
20260505182721 71 203 5.0 14.0 0.00 0.00 0.00 61 1017.7
20260505182622 72 180 3.0 5.0 0.00 0.00 0.00 61 1017.7
20260505182521 72 180 3.0 4.0 0.00 0.00 0.00 61 1017.8
20260505182421 72 203 4.0 7.0 0.00 0.00 0.00 62 1017.7
20260505182323 72 203 2.0 3.0 0.00 0.00 0.00 62 1017.7
20260505182221 72 203 2.0 4.0 0.00 0.00 0.00 62 1017.7
20260505182121 72 203 3.0 4.0 0.00 0.00 0.00 62 1017.8
20260505182022 72 203 3.0 5.0 0.00 0.00 0.00 62 1017.7
20260505181921 72 203 2.0 4.0 0.00 0.00 0.00 61 1017.7
20260505181821 71 225 2.0 3.0 0.00 0.00 0.00 63 1017.8
20260505181721 71 225 3.0 4.0 0.00 0.00 0.00 63 1017.8
20260505181622 71 225 3.0 4.0 0.00 0.00 0.00 63 1017.8
20260505181520 71 203 2.0 6.0 0.00 0.00 0.00 63 1017.8
20260505181421 71 248 3.0 6.0 0.00 0.00 0.00 61 1017.8
20260505181341 71 203 3.0 4.0 0.00 0.00 0.00 64 1017.8
20260505181221 71 203 3.0 6.0 0.00 0.00 0.00 61 1017.7
20260505181121 71 180 6.0 9.0 0.00 0.00 0.00 62 1017.8
20260505181021 71 203 3.0 6.0 0.00 0.00 0.00 61 1017.8
20260505180922 71 180 5.0 7.0 0.00 0.00 0.00 60 1017.8
20260505180824 71 158 5.0 9.0 0.00 0.00 0.00 66 1017.8
20260505180722 72 270 2.0 6.0 0.00 0.00 0.00 60 1017.9
20260505180623 72 225 5.0 9.0 0.00 0.00 0.00 61 1017.8
20260505180521 72 180 3.0 5.0 0.00 0.00 0.00 62 1017.9
20260505180420 72 203 2.0 4.0 0.00 0.00 0.00 60 1017.9
20260505180321 72 180 3.0 6.0 0.00 0.00 0.00 60 1017.9
20260505180221 72 203 3.0 5.0 0.00 0.00 0.00 63 1018.0
20260505180121 72 203 4.0 7.0 0.00 0.00 0.00 59 1017.9
20260505180042 72 203 4.0 8.0 0.00 0.00 0.00 65 1017.9
20260505175921 72 23 1.0 2.0 0.00 0.00 0.00 64 1017.9
20260505175821 72 135 2.0 3.0 0.00 0.00 0.00 64 1017.9
20260505175721 72 113 2.0 6.0 0.00 0.00 0.00 66 1017.9
20260505175641 72 135 3.0 5.0 0.00 0.00 0.00 62 1017.9
20260505175520 72 113 2.0 3.0 0.00 0.00 0.00 62 1017.9
20260505175421 72 203 3.0 6.0 0.00 0.00 0.00 65 1017.9
20260505175321 72 203 3.0 6.0 0.00 0.00 0.00 61 1017.9
20260505175222 72 203 1.0 2.0 0.00 0.00 0.00 62 1017.9
20260505175121 72 203 2.0 5.0 0.00 0.00 0.00 60 1017.9
20260505175021 72 158 2.0 4.0 0.00 0.00 0.00 61 1018.0
20260505174921 72 158 3.0 5.0 0.00 0.00 0.00 61 1018.0
20260505174821 72 180 3.0 5.0 0.00 0.00 0.00 61 1018.0
20260505174722 72 225 4.0 9.0 0.00 0.00 0.00 62 1018.0
20260505174621 72 158 3.0 4.0 0.00 0.00 0.00 60 1018.0
20260505174521 72 203 4.0 6.0 0.00 0.00 0.00 65 1018.0
20260505174421 72 203 4.0 6.0 0.00 0.00 0.00 64 1018.0
20260505174321 72 225 4.0 9.0 0.00 0.00 0.00 59 1018.0
20260505174221 72 203 5.0 7.0 0.00 0.00 0.00 62 1018.0
20260505174141 72 225 2.0 4.0 0.00 0.00 0.00 63 1018.0
20260505174021 72 158 1.0 2.0 0.00 0.00 0.00 63 1018.0
20260505173921 72 180 2.0 4.0 0.00 0.00 0.00 62 1017.9
20260505173821 72 225 4.0 7.0 0.00 0.00 0.00 61 1017.9
20260505173801 72 248 4.0 11.0 0.00 0.00 0.00 61 1018.0
20260505173621 72 225 2.0 4.0 0.00 0.00 0.00 60 1018.0
20260505173520 72 203 4.0 8.0 0.00 0.00 0.00 60 1018.0
20260505173421 72 203 3.0 7.0 0.00 0.00 0.00 60 1018.0
20260505173321 72 203 3.0 6.0 0.00 0.00 0.00 60 1017.9
20260505173220 72 180 4.0 6.0 0.00 0.00 0.00 59 1018.0
20260505173120 72 203 6.0 12.0 0.00 0.00 0.00 59 1018.0
20260505173020 72 225 3.0 5.0 0.00 0.00 0.00 60 1018.1
20260505172922 72 203 3.0 6.0 0.00 0.00 0.00 61 1018.1
20260505172823 72 203 2.0 6.0 0.00 0.00 0.00 61 1018.1
20260505172743 72 158 4.0 7.0 0.00 0.00 0.00 61 1018.2
20260505172621 72 225 3.0 7.0 0.00 0.00 0.00 62 1018.2
20260505172523 72 203 3.0 5.0 0.00 0.00 0.00 60 1018.2
20260505172422 72 203 3.0 5.0 0.00 0.00 0.00 60 1018.2
20260505172321 72 180 5.0 8.0 0.00 0.00 0.00 60 1018.2
20260505172222 72 180 3.0 6.0 0.00 0.00 0.00 62 1018.1
20260505172201 72 225 2.0 5.0 0.00 0.00 0.00 59 1018.2
20260505171940 72 180 5.0 9.0 0.00 0.00 0.00 61 1018.2
20260505171820 72 180 5.0 10.0 0.00 0.00 0.00 63 1018.1
20260505171723 72 180 4.0 8.0 0.00 0.00 0.00 63 1018.2
20260505171621 72 180 2.0 4.0 0.00 0.00 0.00 65 1018.3
20260505171521 72 158 3.0 5.0 0.00 0.00 0.00 62 1018.2
20260505171421 71 203 4.0 8.0 0.00 0.00 0.00 63 1018.2
20260505171321 71 203 2.0 3.0 0.00 0.00 0.00 66 1018.2
20260505171220 71 158 4.0 7.0 0.00 0.00 0.00 63 1018.2
20260505171141 71 225 2.0 4.0 0.00 0.00 0.00 66 1018.2
20260505171021 71 225 2.0 4.0 0.00 0.00 0.00 61 1018.2
20260505170920 71 180 4.0 7.0 0.00 0.00 0.00 62 1018.1
20260505170822 71 225 1.0 2.0 0.00 0.00 0.00 61 1018.2
20260505170721 71 203 4.0 6.0 0.00 0.00 0.00 62 1018.1
20260505170641 71 225 2.0 4.0 0.00 0.00 0.00 63 1018.2
20260505170521 71 203 4.0 8.0 0.00 0.00 0.00 61 1018.2
20260505170421 71 180 5.0 8.0 0.00 0.00 0.00 62 1018.2
20260505170322 71 135 5.0 10.0 0.00 0.00 0.00 60 1018.2
20260505170221 71 248 2.0 6.0 0.00 0.00 0.00 62 1018.3
20260505170141 71 203 4.0 8.0 0.00 0.00 0.00 61 1018.2
20260505170021 71 225 3.0 5.0 0.00 0.00 0.00 62 1018.2
20260505165940 71 203 3.0 4.0 0.00 0.00 0.00 62 1018.2
20260505165821 71 180 3.0 6.0 0.00 0.00 0.00 63 1018.2
20260505165722 71 225 4.0 6.0 0.00 0.00 0.00 61 1018.1
20260505165623 71 203 5.0 9.0 0.00 0.00 0.00 61 1018.1
20260505165523 71 203 4.0 6.0 0.00 0.00 0.00 62 1018.2
20260505165421 71 293 3.0 8.0 0.00 0.00 0.00 62 1018.1
20260505165321 71 180 4.0 9.0 0.00 0.00 0.00 62 1018.2
20260505165221 71 203 3.0 6.0 0.00 0.00 0.00 61 1018.2
20260505165121 71 180 4.0 7.0 0.00 0.00 0.00 61 1018.3
20260505165040 71 203 4.0 9.0 0.00 0.00 0.00 61 1018.3
20260505164921 71 180 3.0 6.0 0.00 0.00 0.00 63 1018.2
20260505164821 71 180 2.0 4.0 0.00 0.00 0.00 62 1018.3
20260505164721 71 203 2.0 5.0 0.00 0.00 0.00 62 1018.3
20260505164640 71 203 2.0 5.0 0.00 0.00 0.00 62 1018.2
20260505164520 71 203 2.0 4.0 0.00 0.00 0.00 61 1018.2
20260505164421 71 203 3.0 6.0 0.00 0.00 0.00 63 1018.2
20260505164322 71 180 3.0 5.0 0.00 0.00 0.00 61 1018.2
20260505164301 71 225 2.0 3.0 0.00 0.00 0.00 62 1018.2
20260505164122 71 135 2.0 4.0 0.00 0.00 0.00 61 1018.3
20260505164022 71 180 4.0 7.0 0.00 0.00 0.00 61 1018.4
20260505163923 71 180 3.0 5.0 0.00 0.00 0.00 62 1018.5
20260505163821 71 180 3.0 5.0 0.00 0.00 0.00 64 1018.5
20260505163720 71 180 1.0 3.0 0.00 0.00 0.00 65 1018.6
20260505163621 71 158 2.0 4.0 0.00 0.00 0.00 67 1018.5
20260505163520 71 158 1.0 2.0 0.00 0.00 0.00 67 1018.6
20260505163421 71 158 1.0 3.0 0.00 0.00 0.00 66 1018.6
20260505163321 71 158 1.0 2.0 0.00 0.00 0.00 67 1018.7
20260505163223 70 158 2.0 4.0 0.00 0.00 0.00 64 1018.7
20260505163003 70 248 2.0 4.0 0.00 0.00 0.00 64 1018.7
20260505162824 70 180 3.0 6.0 0.00 0.00 0.00 64 1018.7
20260505162721 70 180 4.0 6.0 0.00 0.00 0.00 63 1018.7
20260505162641 70 158 2.0 5.0 0.00 0.00 0.00 65 1018.7
20260505162541 70 158 2.0 5.0 0.00 0.00 0.00 64 1018.7
20260505162421 70 180 3.0 4.0 0.00 0.00 0.00 63 1018.7
20260505162341 70 225 5.0 8.0 0.00 0.00 0.00 63 1018.7
20260505162221 70 135 2.0 5.0 0.00 0.00 0.00 63 1018.7
20260505162121 70 135 3.0 8.0 0.00 0.00 0.00 63 1018.8
20260505162022 70 158 4.0 8.0 0.00 0.00 0.00 61 1018.8
20260505161923 71 225 3.0 6.0 0.00 0.00 0.00 62 1018.8
20260505161822 71 180 4.0 7.0 0.00 0.00 0.00 62 1018.8
20260505161724 71 180 4.0 5.0 0.00 0.00 0.00 62 1018.9
20260505161623 70 158 3.0 5.0 0.00 0.00 0.00 63 1018.9
20260505161521 70 203 1.0 3.0 0.00 0.00 0.00 65 1018.9
20260505161421 70 248 1.0 3.0 0.00 0.00 0.00 65 1018.9
20260505161321 70 180 3.0 6.0 0.00 0.00 0.00 63 1019.0
20260505161241 70 180 2.0 6.0 0.00 0.00 0.00 66 1018.9
20260505161120 70 203 3.0 5.0 0.00 0.00 0.00 66 1019.0
20260505161041 70 158 2.0 3.0 0.00 0.00 0.00 65 1018.9
20260505160920 70 180 3.0 5.0 0.00 0.00 0.00 66 1018.9
20260505160820 70 180 3.0 6.0 0.00 0.00 0.00 67 1019.0
20260505160723 70 180 1.0 2.0 0.00 0.00 0.00 65 1018.9
20260505160621 70 180 4.0 6.0 0.00 0.00 0.00 62 1018.9
20260505160522 70 158 4.0 7.0 0.00 0.00 0.00 63 1018.9
20260505160421 70 180 4.0 6.0 0.00 0.00 0.00 65 1018.9
20260505160341 70 180 2.0 3.0 0.00 0.00 0.00 64 1018.9
20260505160221 70 180 4.0 7.0 0.00 0.00 0.00 63 1018.9
20260505160120 71 180 3.0 7.0 0.00 0.00 0.00 62 1018.9
20260505153322 69 203 1.0 2.0 0.00 0.00 0.00 67 1019.3
20260505153220 69 180 3.0 8.0 0.00 0.00 0.00 68 1019.3
20260505153122 69 225 2.0 7.0 0.00 0.00 0.00 70 1019.3
20260505153021 69 0.0 1.0 0.00 0.00 0.00 69 1019.3
20260505152922 68 225 3.0 4.0 0.00 0.00 0.00 66 1019.4
20260505152823 68 203 2.0 3.0 0.00 0.00 0.00 68 1019.4
20260505152742 68 203 2.0 4.0 0.00 0.00 0.00 66 1019.4
20260505152622 68 180 4.0 6.0 0.00 0.00 0.00 67 1019.4
20260505152523 68 180 4.0 7.0 0.00 0.00 0.00 67 1019.4
20260505152421 68 180 4.0 6.0 0.00 0.00 0.00 69 1019.4
20260505152320 68 203 2.0 3.0 0.00 0.00 0.00 69 1019.4
20260505152241 68 225 3.0 6.0 0.00 0.00 0.00 66 1019.4
20260505152121 68 180 4.0 6.0 0.00 0.00 0.00 68 1019.5
20260505152020 68 180 3.0 7.0 0.00 0.00 0.00 68 1019.5
20260505151940 68 203 4.0 8.0 0.00 0.00 0.00 69 1019.6
20260505151822 68 203 4.0 6.0 0.00 0.00 0.00 66 1019.5
20260505151722 68 203 5.0 6.0 0.00 0.00 0.00 67 1019.5
20260505151623 68 203 4.0 7.0 0.00 0.00 0.00 68 1019.6
20260505151522 68 158 4.0 6.0 0.00 0.00 0.00 66 1019.6
20260505151424 68 158 2.0 5.0 0.00 0.00 0.00 69 1019.6
20260505151321 68 158 1.0 10.0 0.00 0.00 0.00 68 1019.6
20260505151221 68 203 5.0 11.0 0.00 0.00 0.00 66 1019.6
20260505151120 68 203 3.0 9.0 0.00 0.00 0.00 68 1019.6
20260505151020 68 203 3.0 7.0 0.00 0.00 0.00 68 1019.6
20260505150941 68 158 4.0 6.0 0.00 0.00 0.00 68 1019.6
20260505150822 68 225 4.0 7.0 0.00 0.00 0.00 70 1019.6
20260505150722 68 225 1.0 2.0 0.00 0.00 0.00 70 1019.6
20260505150623 68 225 2.0 2.0 0.00 0.00 0.00 70 1019.7
20260505150522 68 225 3.0 4.0 0.00 0.00 0.00 68 1019.7
20260505150423 68 180 3.0 5.0 0.00 0.00 0.00 67 1019.6
20260505150324 68 203 3.0 7.0 0.00 0.00 0.00 68 1019.5
20260505150242 68 203 2.0 6.0 0.00 0.00 0.00 70 1019.5
20260505150123 68 225 2.0 3.0 0.00 0.00 0.00 70 1019.5
20260505140622 65 248 3.0 6.0 0.00 0.00 0.00 72 1019.2
20260505140522 65 248 2.0 3.0 0.00 0.00 0.00 72 1019.2
20260505140423 65 158 2.0 3.0 0.00 0.00 0.00 72 1019.2
20260505140322 64 180 3.0 5.0 0.00 0.00 0.00 72 1019.2
20260505140223 64 180 4.0 6.0 0.00 0.00 0.00 72 1019.2
20260505140123 64 180 3.0 5.0 0.00 0.00 0.00 73 1019.3
20260505130222 59 135 1.0 2.0 0.00 0.00 0.00 81 1019.2
20260505130143 59 135 1.0 2.0 0.00 0.00 0.00 81 1019.3
20260505125023 58 135 1.0 3.0 0.00 0.00 0.00 84 1019.3
20260505124922 58 0.0 1.0 0.00 0.00 0.00 84 1019.3
20260505124822 58 135 2.0 3.0 0.00 0.00 0.00 84 1019.3
20260505124722 58 158 1.0 1.0 0.00 0.00 0.00 83 1019.4
20260505124622 58 158 2.0 3.0 0.00 0.00 0.00 83 1019.4
20260505124522 58 248 2.0 4.0 0.00 0.00 0.00 83 1019.4
20260505124422 58 158 4.0 5.0 0.00 0.00 0.00 84 1019.4
20260505124343 58 0.0 2.0 0.00 0.00 0.00 84 1019.3
20260505124223 58 0.0 0.0 0.00 0.00 0.00 85 1019.3
20260505124123 58 0.0 0.0 0.00 0.00 0.00 83 1019.3
20260505124024 58 0.0 0.0 0.00 0.00 0.00 83 1019.3
20260505123923 58 0.0 2.0 0.00 0.00 0.00 83 1019.3
20260505123842 58 158 3.0 5.0 0.00 0.00 0.00 83 1019.3